| time (UTC) | temp F | wind direction | speed knots | gust knots | rain 1hr in | rain 24hr in | rain mn in | humidity % | barometer mb |
| 20260506124146 | 57 | 323 | 2.6 | 7.0 | 0.00 | 0.00 | 0.00 | 34 | 1011.9 |
| 20260506124045 | 57 | 345 | 3.5 | 6.1 | 0.00 | 0.00 | 0.00 | 33 | 1011.8 |
| 20260506123945 | 57 | 338 | 6.1 | 6.1 | 0.00 | 0.00 | 0.00 | 33 | 1011.9 |
| 20260506123845 | 57 | 341 | 4.3 | 4.3 | 0.00 | 0.00 | 0.00 | 32 | 1011.8 |
| 20260506123745 | 57 | 355 | 3.5 | 6.1 | 0.00 | 0.00 | 0.00 | 31 | 1011.8 |
| 20260506123712 | 57 | 355 | 3.5 | 6.1 | 0.00 | 0.00 | 0.00 | 31 | 1011.8 |
| 20260506123644 | 57 | 330 | 4.3 | 6.1 | 0.00 | 0.00 | 0.00 | 31 | 1011.8 |
| 20260506123544 | 57 | 341 | 4.3 | 5.2 | 0.00 | 0.00 | 0.00 | 31 | 1011.8 |
| 20260506123444 | 57 | 329 | 2.6 | 5.2 | 0.00 | 0.00 | 0.00 | 31 | 1011.8 |
| 20260506123344 | 57 | 348 | 4.3 | 5.2 | 0.00 | 0.00 | 0.00 | 31 | 1011.8 |
| 20260506123244 | 57 | 9 | 2.6 | 7.0 | 0.00 | 0.00 | 0.00 | 31 | 1011.8 |
| 20260506123212 | 57 | 9 | 2.6 | 7.0 | 0.00 | 0.00 | 0.00 | 31 | 1011.8 |
| 20260506123146 | 57 | 319 | 3.5 | 7.0 | 0.00 | 0.00 | 0.00 | 31 | 1011.8 |
| 20260506123046 | 57 | 340 | 5.2 | 6.1 | 0.00 | 0.00 | 0.00 | 30 | 1011.8 |
| 20260506122945 | 57 | 321 | 3.5 | 5.2 | 0.00 | 0.00 | 0.00 | 30 | 1011.7 |
| 20260506122844 | 57 | 355 | 4.3 | 4.3 | 0.00 | 0.00 | 0.00 | 30 | 1011.8 |
| 20260506122744 | 57 | 338 | 2.6 | 5.2 | 0.00 | 0.00 | 0.00 | 30 | 1011.8 |
| 20260506122712 | 57 | 338 | 2.6 | 5.2 | 0.00 | 0.00 | 0.00 | 30 | 1011.8 |
| 20260506122644 | 57 | 9 | 2.6 | 5.2 | 0.00 | 0.00 | 0.00 | 30 | 1011.8 |
| 20260506122544 | 57 | 34 | 2.6 | 5.2 | 0.00 | 0.00 | 0.00 | 30 | 1011.8 |
| 20260506122444 | 57 | 348 | 3.5 | 5.2 | 0.00 | 0.00 | 0.00 | 30 | 1011.8 |
| 20260506122344 | 57 | 338 | 4.3 | 5.2 | 0.00 | 0.00 | 0.00 | 30 | 1011.8 |
| 20260506122244 | 57 | 346 | 2.6 | 6.1 | 0.00 | 0.00 | 0.00 | 31 | 1011.8 |
| 20260506122212 | 57 | 346 | 2.6 | 6.1 | 0.00 | 0.00 | 0.00 | 31 | 1011.8 |
| 20260506122144 | 57 | 348 | 2.6 | 6.1 | 0.00 | 0.00 | 0.00 | 30 | 1011.8 |
| 20260506122045 | 57 | 11 | 3.5 | 4.3 | 0.00 | 0.00 | 0.00 | 29 | 1011.9 |
| 20260506121945 | 57 | 327 | 1.7 | 4.3 | 0.00 | 0.00 | 0.00 | 29 | 1011.8 |
| 20260506121845 | 57 | 342 | 2.6 | 4.3 | 0.00 | 0.00 | 0.00 | 29 | 1011.8 |
| 20260506121746 | 57 | 355 | 6.1 | 6.1 | 0.00 | 0.00 | 0.00 | 29 | 1011.9 |
| 20260506121712 | 57 | 355 | 6.1 | 6.1 | 0.00 | 0.00 | 0.00 | 29 | 1011.9 |
| 20260506121645 | 57 | 5 | 3.5 | 4.3 | 0.00 | 0.00 | 0.00 | 28 | 1011.8 |
| 20260506121545 | 57 | 339 | 2.6 | 4.3 | 0.00 | 0.00 | 0.00 | 28 | 1011.8 |
| 20260506121445 | 57 | 343 | 3.5 | 4.3 | 0.00 | 0.00 | 0.00 | 28 | 1011.8 |
| 20260506121345 | 57 | 19 | 2.6 | 2.6 | 0.00 | 0.00 | 0.00 | 27 | 1011.7 |
| 20260506121245 | 56 | 346 | 2.6 | 3.5 | 0.00 | 0.00 | 0.00 | 27 | 1011.8 |
| 20260506121211 | 56 | 346 | 2.6 | 3.5 | 0.00 | 0.00 | 0.00 | 27 | 1011.8 |
| 20260506121144 | 56 | 334 | 1.7 | 3.5 | 0.00 | 0.00 | 0.00 | 26 | 1011.7 |
| 20260506121045 | 56 | 355 | 2.6 | 3.5 | 0.00 | 0.00 | 0.00 | 26 | 1011.8 |
| 20260506120945 | 56 | 327 | 1.7 | 3.5 | 0.00 | 0.00 | 0.00 | 25 | 1011.8 |
| 20260506120845 | 56 | 38 | 2.6 | 3.5 | 0.00 | 0.00 | 0.00 | 25 | 1011.8 |
| 20260506120745 | 56 | 15 | 2.6 | 4.3 | 0.00 | 0.00 | 0.00 | 24 | 1011.8 |
| 20260506120713 | 56 | 15 | 2.6 | 4.3 | 0.00 | 0.00 | 0.00 | 24 | 1011.8 |
| 20260506120645 | 56 | 9 | 2.6 | 3.5 | 0.00 | 0.00 | 0.00 | 24 | 1011.8 |
| 20260506120547 | 56 | 355 | 0.9 | 3.5 | 0.00 | 0.00 | 0.00 | 24 | 1011.9 |
| 20260506120446 | 56 | 16 | 2.6 | 3.5 | 0.00 | 0.00 | 0.00 | 25 | 1011.9 |
| 20260506120346 | 56 | 24 | 1.7 | 3.5 | 0.00 | 0.00 | 0.00 | 25 | 1011.8 |
| 20260506120245 | 56 | 350 | 3.5 | 4.3 | 0.00 | 0.00 | 0.00 | 25 | 1011.8 |
| 20260506120212 | 56 | 350 | 3.5 | 4.3 | 0.00 | 0.00 | 0.00 | 25 | 1011.8 |
| 20260506120145 | 56 | 347 | 3.5 | 4.3 | 0.00 | 0.00 | 0.00 | 25 | 1011.8 |
| 20260506120045 | 56 | 355 | 2.6 | 4.3 | 0.00 | 0.00 | 0.00 | 26 | 1011.8 |
| 20260506115945 | 56 | 302 | 4.3 | 4.3 | 0.00 | 0.00 | 0.00 | 26 | 1011.9 |
| 20260506115845 | 56 | 24 | 2.6 | 3.5 | 0.00 | 0.00 | 0.00 | 26 | 1011.9 |
| 20260506115745 | 56 | 325 | 1.7 | 3.5 | 0.00 | 0.00 | 0.00 | 26 | 1011.9 |
| 20260506115711 | 56 | 325 | 1.7 | 3.5 | 0.00 | 0.00 | 0.00 | 26 | 1011.9 |
| 20260506115645 | 56 | 340 | 2.6 | 3.5 | 0.00 | 0.00 | 0.00 | 26 | 1011.9 |
| 20260506115545 | 56 | 5 | 2.6 | 3.5 | 0.00 | 0.00 | 0.00 | 25 | 1011.9 |
| 20260506115445 | 56 | 26 | 2.6 | 3.5 | 0.00 | 0.00 | 0.00 | 25 | 1011.8 |
| 20260506115345 | 56 | 345 | 2.6 | 3.5 | 0.00 | 0.00 | 0.00 | 25 | 1011.8 |
| 20260506115245 | 56 | 355 | 1.7 | 6.1 | 0.00 | 0.00 | 0.00 | 25 | 1011.9 |
| 20260506115213 | 56 | 355 | 1.7 | 6.1 | 0.00 | 0.00 | 0.00 | 25 | 1011.9 |
| 20260506115145 | 56 | 338 | 3.5 | 6.1 | 0.00 | 0.00 | 0.00 | 25 | 1011.9 |
| 20260506115046 | 56 | 324 | 2.6 | 6.1 | 0.00 | 0.00 | 0.00 | 24 | 1011.9 |
| 20260506114946 | 56 | 360 | 4.3 | 6.1 | 0.00 | 0.00 | 0.00 | 24 | 1012.0 |
| 20260506114846 | 56 | 329 | 2.6 | 6.1 | 0.00 | 0.00 | 0.00 | 24 | 1011.9 |
| 20260506114746 | 56 | 355 | 1.7 | 5.2 | 0.00 | 0.00 | 0.00 | 24 | 1012.0 |
| 20260506114712 | 56 | 355 | 1.7 | 5.2 | 0.00 | 0.00 | 0.00 | 24 | 1012.0 |
| 20260506114644 | 56 | 351 | 4.3 | 5.2 | 0.00 | 0.00 | 0.00 | 23 | 1012.0 |
| 20260506114544 | 56 | 19 | 2.6 | 5.2 | 0.00 | 0.00 | 0.00 | 23 | 1011.9 |
| 20260506114445 | 55 | 13 | 2.6 | 4.3 | 0.00 | 0.00 | 0.00 | 23 | 1012.0 |
| 20260506114345 | 55 | 348 | 2.6 | 3.5 | 0.00 | 0.00 | 0.00 | 24 | 1011.9 |
| 20260506114245 | 55 | 339 | 2.6 | 7.8 | 0.00 | 0.00 | 0.00 | 24 | 1012.0 |
| 20260506114213 | 55 | 339 | 2.6 | 7.8 | 0.00 | 0.00 | 0.00 | 24 | 1012.0 |
| 20260506114145 | 55 | 62 | 5.2 | 7.8 | 0.00 | 0.00 | 0.00 | 24 | 1012.0 |
| 20260506114045 | 55 | 34 | 4.3 | 7.8 | 0.00 | 0.00 | 0.00 | 24 | 1011.9 |
| 20260506113946 | 55 | 5 | 2.6 | 4.3 | 0.00 | 0.00 | 0.00 | 25 | 1012.0 |
| 20260506113846 | 55 | 9 | 2.6 | 3.5 | 0.00 | 0.00 | 0.00 | 25 | 1011.9 |
| 20260506113746 | 55 | 9 | 2.6 | 7.0 | 0.00 | 0.00 | 0.00 | 26 | 1011.9 |
| 20260506113712 | 55 | 9 | 2.6 | 7.0 | 0.00 | 0.00 | 0.00 | 26 | 1011.9 |
| 20260506113646 | 55 | 332 | 4.3 | 7.0 | 0.00 | 0.00 | 0.00 | 26 | 1011.9 |
| 20260506113546 | 56 | 343 | 2.6 | 7.0 | 0.00 | 0.00 | 0.00 | 27 | 1012.0 |
| 20260506113445 | 56 | 343 | 4.3 | 7.0 | 0.00 | 0.00 | 0.00 | 26 | 1012.0 |
| 20260506113345 | 56 | 22 | 4.3 | 4.3 | 0.00 | 0.00 | 0.00 | 27 | 1012.0 |
| 20260506113245 | 56 | 342 | 2.6 | 7.0 | 0.00 | 0.00 | 0.00 | 26 | 1012.0 |
| 20260506113212 | 56 | 342 | 2.6 | 7.0 | 0.00 | 0.00 | 0.00 | 26 | 1012.0 |
| 20260506113144 | 56 | 16 | 4.3 | 7.0 | 0.00 | 0.00 | 0.00 | 26 | 1011.8 |
| 20260506113044 | 56 | 336 | 3.5 | 7.0 | 0.00 | 0.00 | 0.00 | 26 | 1011.9 |
| 20260506112944 | 56 | 360 | 4.3 | 7.0 | 0.00 | 0.00 | 0.00 | 26 | 1011.9 |
| 20260506112845 | 56 | 5 | 4.3 | 4.3 | 0.00 | 0.00 | 0.00 | 27 | 1011.9 |
| 20260506112745 | 56 | 348 | 2.6 | 7.8 | 0.00 | 0.00 | 0.00 | 27 | 1011.9 |
| 20260506112713 | 56 | 348 | 2.6 | 7.8 | 0.00 | 0.00 | 0.00 | 27 | 1011.9 |
| 20260506112645 | 56 | 360 | 4.3 | 7.8 | 0.00 | 0.00 | 0.00 | 27 | 1011.8 |
| 20260506112545 | 56 | 5 | 5.2 | 7.8 | 0.00 | 0.00 | 0.00 | 28 | 1011.9 |
| 20260506112446 | 56 | 25 | 3.5 | 7.0 | 0.00 | 0.00 | 0.00 | 28 | 1011.9 |
| 20260506112346 | 56 | 360 | 7.0 | 7.0 | 0.00 | 0.00 | 0.00 | 28 | 1011.9 |
| 20260506112245 | 56 | 350 | 2.6 | 6.1 | 0.00 | 0.00 | 0.00 | 28 | 1011.9 |
| 20260506112213 | 56 | 350 | 2.6 | 6.1 | 0.00 | 0.00 | 0.00 | 28 | 1011.9 |
| 20260506112145 | 56 | 23 | 2.6 | 4.3 | 0.00 | 0.00 | 0.00 | 28 | 1011.9 |
| 20260506112045 | 56 | 5 | 1.7 | 4.3 | 0.00 | 0.00 | 0.00 | 29 | 1011.9 |
| 20260506111945 | 56 | 338 | 1.7 | 4.3 | 0.00 | 0.00 | 0.00 | 29 | 1011.8 |
| 20260506111844 | 56 | 355 | 2.6 | 4.3 | 0.00 | 0.00 | 0.00 | 30 | 1011.9 |
| 20260506111744 | 56 | 355 | 2.6 | 7.8 | 0.00 | 0.00 | 0.00 | 30 | 1011.9 |
| 20260506111712 | 56 | 355 | 2.6 | 7.8 | 0.00 | 0.00 | 0.00 | 30 | 1011.9 |
| 20260506111644 | 56 | 335 | 2.6 | 7.8 | 0.00 | 0.00 | 0.00 | 30 | 1011.9 |
| 20260506111544 | 56 | 355 | 4.3 | 7.8 | 0.00 | 0.00 | 0.00 | 30 | 1011.8 |
| 20260506111444 | 56 | 5 | 5.2 | 7.8 | 0.00 | 0.00 | 0.00 | 30 | 1011.8 |
| 20260506111344 | 56 | 355 | 3.5 | 7.8 | 0.00 | 0.00 | 0.00 | 29 | 1011.9 |
| 20260506111245 | 56 | 308 | 2.6 | 7.0 | 0.00 | 0.00 | 0.00 | 29 | 1011.8 |
| 20260506111213 | 56 | 308 | 2.6 | 7.0 | 0.00 | 0.00 | 0.00 | 29 | 1011.8 |
| 20260506111145 | 56 | 328 | 2.6 | 7.0 | 0.00 | 0.00 | 0.00 | 29 | 1011.8 |
| 20260506111045 | 56 | 360 | 2.6 | 4.3 | 0.00 | 0.00 | 0.00 | 29 | 1011.8 |
| 20260506110945 | 56 | 312 | 1.7 | 4.3 | 0.00 | 0.00 | 0.00 | 29 | 1011.8 |
| 20260506110845 | 56 | 333 | 2.6 | 4.3 | 0.00 | 0.00 | 0.00 | 29 | 1011.8 |
| 20260506110745 | 56 | 360 | 2.6 | 7.8 | 0.00 | 0.00 | 0.00 | 30 | 1011.7 |
| 20260506110712 | 56 | 360 | 2.6 | 7.8 | 0.00 | 0.00 | 0.00 | 30 | 1011.7 |
| 20260506110646 | 57 | 15 | 2.6 | 7.8 | 0.00 | 0.00 | 0.00 | 29 | 1011.8 |
| 20260506110546 | 57 | 16 | 2.6 | 7.8 | 0.00 | 0.00 | 0.00 | 29 | 1011.8 |
| 20260506110446 | 57 | 336 | 2.6 | 7.8 | 0.00 | 0.00 | 0.00 | 29 | 1011.8 |
| 20260506110346 | 57 | 327 | 5.2 | 5.2 | 0.00 | 0.00 | 0.00 | 29 | 1011.7 |
| 20260506110245 | 57 | 5 | 1.7 | 8.7 | 0.00 | 0.00 | 0.00 | 28 | 1011.7 |
| 20260506110211 | 57 | 5 | 1.7 | 8.7 | 0.00 | 0.00 | 0.00 | 28 | 1011.7 |
| 20260506110145 | 57 | 341 | 2.6 | 8.7 | 0.00 | 0.00 | 0.00 | 29 | 1011.8 |
| 20260506110045 | 57 | 342 | 2.6 | 8.7 | 0.00 | 0.00 | 0.00 | 28 | 1011.7 |
| 20260506105945 | 57 | 338 | 7.8 | 8.7 | 0.00 | 0.00 | 0.00 | 26 | 1011.7 |
| 20260506105844 | 57 | 330 | 3.5 | 3.5 | 0.00 | 0.00 | 0.00 | 26 | 1011.7 |
| 20260506105744 | 57 | 323 | 2.6 | 6.1 | 0.00 | 0.00 | 0.00 | 26 | 1011.7 |
| 20260506105712 | 57 | 323 | 2.6 | 6.1 | 0.00 | 0.00 | 0.00 | 26 | 1011.7 |
| 20260506105646 | 57 | 276 | 2.6 | 4.3 | 0.00 | 0.00 | 0.00 | 26 | 1011.7 |
| 20260506105546 | 57 | 277 | 1.7 | 4.3 | 0.00 | 0.00 | 0.00 | 27 | 1011.7 |
| 20260506105445 | 56 | 342 | 1.7 | 4.3 | 0.00 | 0.00 | 0.00 | 27 | 1011.7 |
| 20260506105345 | 56 | 334 | 2.6 | 4.3 | 0.00 | 0.00 | 0.00 | 26 | 1011.8 |
| 20260506105245 | 56 | 5 | 1.7 | 4.3 | 0.00 | 0.00 | 0.00 | 27 | 1011.7 |
| 20260506105213 | 56 | 5 | 1.7 | 4.3 | 0.00 | 0.00 | 0.00 | 27 | 1011.7 |
| 20260506105146 | 56 | 327 | 2.6 | 4.3 | 0.00 | 0.00 | 0.00 | 27 | 1011.8 |
| 20260506105046 | 56 | 342 | 1.7 | 4.3 | 0.00 | 0.00 | 0.00 | 27 | 1011.8 |
| 20260506104946 | 56 | 350 | 1.7 | 4.3 | 0.00 | 0.00 | 0.00 | 28 | 1011.8 |
| 20260506104846 | 56 | 5 | 2.6 | 4.3 | 0.00 | 0.00 | 0.00 | 28 | 1011.8 |
| 20260506104745 | 56 | 321 | 1.7 | 6.1 | 0.00 | 0.00 | 0.00 | 29 | 1011.8 |
| 20260506104711 | 56 | 321 | 1.7 | 6.1 | 0.00 | 0.00 | 0.00 | 29 | 1011.8 |
| 20260506104645 | 56 | 337 | 2.6 | 6.1 | 0.00 | 0.00 | 0.00 | 30 | 1011.8 |
| 20260506104545 | 56 | 360 | 2.6 | 6.1 | 0.00 | 0.00 | 0.00 | 30 | 1011.8 |
| 20260506104446 | 56 | 333 | 2.6 | 6.1 | 0.00 | 0.00 | 0.00 | 30 | 1011.8 |
| 20260506104346 | 56 | 342 | 3.5 | 6.1 | 0.00 | 0.00 | 0.00 | 31 | 1011.9 |
| 20260506104246 | 56 | 355 | 2.6 | 7.0 | 0.00 | 0.00 | 0.00 | 30 | 1011.9 |
| 20260506104212 | 56 | 355 | 2.6 | 7.0 | 0.00 | 0.00 | 0.00 | 30 | 1011.9 |
| 20260506104144 | 56 | 22 | 5.2 | 7.0 | 0.00 | 0.00 | 0.00 | 30 | 1011.8 |
| 20260506104044 | 56 | 348 | 2.6 | 5.2 | 0.00 | 0.00 | 0.00 | 29 | 1011.9 |
| 20260506103945 | 56 | 344 | 5.2 | 5.2 | 0.00 | 0.00 | 0.00 | 29 | 1011.9 |
| 20260506103845 | 56 | 355 | 1.7 | 5.2 | 0.00 | 0.00 | 0.00 | 30 | 1011.9 |
| 20260506103746 | 56 | 355 | 3.5 | 8.7 | 0.00 | 0.00 | 0.00 | 30 | 1011.9 |
| 20260506103712 | 56 | 355 | 3.5 | 8.7 | 0.00 | 0.00 | 0.00 | 30 | 1011.9 |
| 20260506103646 | 56 | 339 | 4.3 | 8.7 | 0.00 | 0.00 | 0.00 | 30 | 1011.9 |
| 20260506103546 | 56 | 355 | 7.0 | 8.7 | 0.00 | 0.00 | 0.00 | 29 | 1011.9 |
| 20260506103446 | 56 | 279 | 2.6 | 7.8 | 0.00 | 0.00 | 0.00 | 29 | 1011.8 |
| 20260506103345 | 56 | 360 | 2.6 | 7.0 | 0.00 | 0.00 | 0.00 | 28 | 1011.8 |
| 20260506103245 | 56 | 321 | 4.3 | 7.8 | 0.00 | 0.00 | 0.00 | 28 | 1011.8 |
| 20260506103213 | 56 | 321 | 4.3 | 7.8 | 0.00 | 0.00 | 0.00 | 28 | 1011.8 |
| 20260506103144 | 56 | 11 | 4.3 | 5.2 | 0.00 | 0.00 | 0.00 | 27 | 1011.8 |
| 20260506103044 | 56 | 329 | 2.6 | 4.3 | 0.00 | 0.00 | 0.00 | 27 | 1011.8 |
| 20260506102944 | 56 | 248 | 1.7 | 4.3 | 0.00 | 0.00 | 0.00 | 27 | 1011.8 |
| 20260506102845 | 56 | 360 | 1.7 | 4.3 | 0.00 | 0.00 | 0.00 | 27 | 1011.8 |
| 20260506102745 | 56 | 340 | 5.2 | 8.7 | 0.00 | 0.00 | 0.00 | 27 | 1011.8 |
| 20260506102711 | 56 | 340 | 5.2 | 8.7 | 0.00 | 0.00 | 0.00 | 27 | 1011.8 |
| 20260506102645 | 56 | 9 | 2.6 | 8.7 | 0.00 | 0.00 | 0.00 | 26 | 1011.9 |
| 20260506102545 | 56 | 30 | 5.2 | 7.0 | 0.00 | 0.00 | 0.00 | 26 | 1011.8 |
| 20260506102445 | 56 | 308 | 2.6 | 7.0 | 0.00 | 0.00 | 0.00 | 26 | 1011.9 |
| 20260506102346 | 56 | 11 | 5.2 | 6.1 | 0.00 | 0.00 | 0.00 | 26 | 1011.8 |
| 20260506102246 | 56 | 319 | 5.2 | 7.8 | 0.00 | 0.00 | 0.00 | 25 | 1011.8 |
| 20260506102212 | 56 | 319 | 5.2 | 7.8 | 0.00 | 0.00 | 0.00 | 25 | 1011.8 |
| 20260506102146 | 56 | 346 | 4.3 | 7.0 | 0.00 | 0.00 | 0.00 | 25 | 1011.8 |
| 20260506102046 | 56 | 348 | 6.1 | 7.0 | 0.00 | 0.00 | 0.00 | 25 | 1011.8 |
| 20260506101946 | 56 | 338 | 3.5 | 7.0 | 0.00 | 0.00 | 0.00 | 25 | 1011.8 |
| 20260506101846 | 56 | 336 | 5.2 | 6.1 | 0.00 | 0.00 | 0.00 | 25 | 1011.9 |
| 20260506101745 | 56 | 22 | 2.6 | 6.1 | 0.00 | 0.00 | 0.00 | 24 | 1011.9 |
| 20260506101713 | 56 | 22 | 2.6 | 6.1 | 0.00 | 0.00 | 0.00 | 24 | 1011.9 |
| 20260506101644 | 56 | 335 | 2.6 | 6.1 | 0.00 | 0.00 | 0.00 | 23 | 1011.9 |
| 20260506101544 | 56 | 13 | 3.5 | 6.1 | 0.00 | 0.00 | 0.00 | 23 | 1012.0 |
| 20260506101444 | 56 | 32 | 2.6 | 6.1 | 0.00 | 0.00 | 0.00 | 23 | 1011.9 |
| 20260506101344 | 56 | 346 | 5.2 | 6.1 | 0.00 | 0.00 | 0.00 | 22 | 1011.9 |
| 20260506101244 | 56 | 328 | 5.2 | 7.8 | 0.00 | 0.00 | 0.00 | 22 | 1011.9 |
| 20260506101211 | 56 | 328 | 5.2 | 7.8 | 0.00 | 0.00 | 0.00 | 22 | 1011.9 |
| 20260506101145 | 56 | 335 | 3.5 | 7.8 | 0.00 | 0.00 | 0.00 | 22 | 1011.9 |
| 20260506101045 | 56 | 348 | 4.3 | 7.8 | 0.00 | 0.00 | 0.00 | 22 | 1011.9 |
| 20260506100945 | 56 | 350 | 4.3 | 7.8 | 0.00 | 0.00 | 0.00 | 22 | 1011.8 |
| 20260506100845 | 56 | 327 | 5.2 | 5.2 | 0.00 | 0.00 | 0.00 | 24 | 1011.9 |
| 20260506100745 | 56 | 18 | 3.5 | 6.1 | 0.00 | 0.00 | 0.00 | 24 | 1011.9 |
| 20260506100713 | 56 | 18 | 3.5 | 6.1 | 0.00 | 0.00 | 0.00 | 24 | 1011.9 |
| 20260506100645 | 56 | 46 | 6.1 | 6.1 | 0.00 | 0.00 | 0.00 | 24 | 1011.9 |
| 20260506100545 | 56 | 348 | 4.3 | 5.2 | 0.00 | 0.00 | 0.00 | 25 | 1011.9 |
| 20260506100446 | 56 | 331 | 5.2 | 5.2 | 0.00 | 0.00 | 0.00 | 24 | 1011.9 |
| 20260506100346 | 56 | 351 | 5.2 | 5.2 | 0.00 | 0.00 | 0.00 | 25 | 1011.8 |
| 20260506100246 | 56 | 332 | 4.3 | 7.8 | 0.00 | 0.00 | 0.00 | 25 | 1011.8 |
| 20260506100211 | 56 | 332 | 4.3 | 7.8 | 0.00 | 0.00 | 0.00 | 25 | 1011.8 |
| 20260506100145 | 56 | 340 | 6.1 | 7.8 | 0.00 | 0.00 | 0.00 | 26 | 1011.8 |
| 20260506100045 | 56 | 360 | 6.1 | 7.0 | 0.00 | 0.00 | 0.00 | 26 | 1011.8 |
| 20260506095945 | 56 | 5 | 2.6 | 7.0 | 0.00 | 0.00 | 0.00 | 26 | 1011.8 |
| 20260506095845 | 56 | 10 | 6.1 | 6.1 | 0.00 | 0.00 | 0.00 | 25 | 1011.9 |
| 20260506095745 | 56 | 336 | 3.5 | 6.1 | 0.00 | 0.00 | 0.00 | 23 | 1011.9 |
| 20260506095713 | 56 | 336 | 3.5 | 6.1 | 0.00 | 0.00 | 0.00 | 23 | 1011.9 |
| 20260506095645 | 56 | 331 | 3.5 | 4.3 | 0.00 | 0.00 | 0.00 | 22 | 1011.8 |
| 20260506095545 | 56 | 311 | 4.3 | 4.3 | 0.00 | 0.00 | 0.00 | 22 | 1011.8 |
| 20260506095445 | 56 | 12 | 3.5 | 3.5 | 0.00 | 0.00 | 0.00 | 23 | 1011.8 |
| 20260506095345 | 56 | 360 | 1.7 | 2.6 | 0.00 | 0.00 | 0.00 | 23 | 1011.8 |
| 20260506095245 | 56 | 355 | 1.7 | 8.7 | 0.00 | 0.00 | 0.00 | 24 | 1011.8 |
| 20260506095213 | 56 | 355 | 1.7 | 8.7 | 0.00 | 0.00 | 0.00 | 24 | 1011.8 |
| 20260506095145 | 56 | 342 | 6.1 | 8.7 | 0.00 | 0.00 | 0.00 | 24 | 1011.8 |
| 20260506095045 | 56 | 342 | 3.5 | 8.7 | 0.00 | 0.00 | 0.00 | 24 | 1011.8 |
| 20260506094946 | 56 | 317 | 2.6 | 8.7 | 0.00 | 0.00 | 0.00 | 24 | 1011.8 |
| 20260506094846 | 56 | 333 | 8.7 | 8.7 | 0.00 | 0.00 | 0.00 | 24 | 1011.8 |
| 20260506094745 | 56 | 22 | 2.6 | 11.3 | 0.00 | 0.00 | 0.00 | 25 | 1011.8 |
| 20260506094711 | 56 | 22 | 2.6 | 11.3 | 0.00 | 0.00 | 0.00 | 25 | 1011.8 |
| 20260506094645 | 56 | 337 | 6.1 | 11.3 | 0.00 | 0.00 | 0.00 | 26 | 1011.8 |
| 20260506094545 | 56 | 32 | 4.3 | 11.3 | 0.00 | 0.00 | 0.00 | 26 | 1011.8 |
| 20260506094445 | 57 | 54 | 4.3 | 8.7 | 0.00 | 0.00 | 0.00 | 26 | 1011.8 |
| 20260506094345 | 57 | 349 | 3.5 | 8.7 | 0.00 | 0.00 | 0.00 | 26 | 1011.8 |
| 20260506094246 | 57 | 16 | 2.6 | 9.6 | 0.00 | 0.00 | 0.00 | 26 | 1011.8 |
| 20260506094212 | 57 | 16 | 2.6 | 9.6 | 0.00 | 0.00 | 0.00 | 26 | 1011.8 |
| 20260506094146 | 57 | 13 | 7.0 | 9.6 | 0.00 | 0.00 | 0.00 | 26 | 1011.8 |
| 20260506094046 | 57 | 334 | 7.0 | 9.6 | 0.00 | 0.00 | 0.00 | 26 | 1011.9 |
| 20260506093945 | 57 | 344 | 8.7 | 8.7 | 0.00 | 0.00 | 0.00 | 26 | 1011.8 |
| 20260506093846 | 57 | 313 | 6.1 | 7.0 | 0.00 | 0.00 | 0.00 | 26 | 1011.8 |
| 20260506093745 | 57 | 350 | 7.8 | 8.7 | 0.00 | 0.00 | 0.00 | 25 | 1011.8 |
| 20260506093711 | 57 | 350 | 7.8 | 8.7 | 0.00 | 0.00 | 0.00 | 25 | 1011.8 |
| 20260506093645 | 57 | 342 | 4.3 | 8.7 | 0.00 | 0.00 | 0.00 | 25 | 1011.8 |
| 20260506093545 | 57 | 348 | 7.0 | 8.7 | 0.00 | 0.00 | 0.00 | 24 | 1011.7 |
| 20260506093445 | 57 | 32 | 2.6 | 8.7 | 0.00 | 0.00 | 0.00 | 24 | 1011.7 |
| 20260506093344 | 57 | 360 | 2.6 | 8.7 | 0.00 | 0.00 | 0.00 | 23 | 1011.7 |
| 20260506093244 | 57 | 346 | 2.6 | 7.8 | 0.00 | 0.00 | 0.00 | 23 | 1011.8 |
| 20260506093212 | 57 | 346 | 2.6 | 7.8 | 0.00 | 0.00 | 0.00 | 23 | 1011.8 |
| 20260506093146 | 57 | 336 | 5.2 | 7.8 | 0.00 | 0.00 | 0.00 | 23 | 1011.7 |
| 20260506093046 | 57 | 9 | 5.2 | 7.8 | 0.00 | 0.00 | 0.00 | 22 | 1011.8 |
| 20260506092946 | 57 | 313 | 5.2 | 7.0 | 0.00 | 0.00 | 0.00 | 21 | 1011.8 |
| 20260506092845 | 57 | 351 | 7.0 | 7.0 | 0.00 | 0.00 | 0.00 | 20 | 1011.8 |
| 20260506092745 | 57 | 32 | 3.5 | 8.7 | 0.00 | 0.00 | 0.00 | 19 | 1011.8 |
| 20260506092711 | 57 | 32 | 3.5 | 8.7 | 0.00 | 0.00 | 0.00 | 19 | 1011.8 |
| 20260506092645 | 57 | 351 | 3.5 | 8.7 | 0.00 | 0.00 | 0.00 | 19 | 1011.7 |
| 20260506092545 | 56 | 336 | 7.0 | 8.7 | 0.00 | 0.00 | 0.00 | 20 | 1011.7 |
| 20260506092445 | 56 | 351 | 2.6 | 8.7 | 0.00 | 0.00 | 0.00 | 20 | 1011.8 |
| 20260506092346 | 56 | 360 | 7.0 | 7.0 | 0.00 | 0.00 | 0.00 | 20 | 1011.7 |
| 20260506092246 | 56 | 24 | 4.3 | 9.6 | 0.00 | 0.00 | 0.00 | 19 | 1011.8 |
| 20260506092212 | 56 | 24 | 4.3 | 9.6 | 0.00 | 0.00 | 0.00 | 19 | 1011.8 |
| 20260506092146 | 56 | 311 | 4.3 | 9.6 | 0.00 | 0.00 | 0.00 | 19 | 1011.8 |
| 20260506092045 | 56 | 348 | 5.2 | 9.6 | 0.00 | 0.00 | 0.00 | 17 | 1011.8 |
| 20260506091945 | 56 | 340 | 7.0 | 9.6 | 0.00 | 0.00 | 0.00 | 15 | 1011.8 |
| 20260506091844 | 56 | 28 | 7.0 | 9.6 | 0.00 | 0.00 | 0.00 | 13 | 1011.8 |
| 20260506091744 | 56 | 345 | 10.4 | 10.4 | 0.00 | 0.00 | 0.00 | 10 | 1011.8 |
| 20260506091712 | 56 | 345 | 10.4 | 10.4 | 0.00 | 0.00 | 0.00 | 10 | 1011.8 |
| 20260506091646 | 56 | 18 | 6.1 | 9.6 | 0.00 | 0.00 | 0.00 | 10 | 1011.7 |
| 20260506091545 | 56 | 19 | 3.5 | 9.6 | 0.00 | 0.00 | 0.00 | 9 | 1011.8 |
| 20260506091445 | 56 | 17 | 8.7 | 9.6 | 0.00 | 0.00 | 0.00 | 4 | 1011.8 |
| 20260506091345 | 56 | 351 | 3.5 | 6.1 | 0.00 | 0.00 | 0.00 | 3 | 1011.8 |
| 20260506091245 | 56 | 317 | 8.7 | 8.7 | 0.00 | 0.00 | 0.00 | 3 | 1011.7 |
| 20260506091213 | 56 | 317 | 8.7 | 8.7 | 0.00 | 0.00 | 0.00 | 3 | 1011.7 |
| 20260506091145 | 56 | 61 | 2.6 | 6.1 | 0.00 | 0.00 | 0.00 | 3 | 1011.7 |
| 20260506091045 | 56 | 349 | 5.2 | 6.1 | 0.00 | 0.00 | 0.00 | 2 | 1011.7 |
| 20260506090945 | 55 | 355 | 1.7 | 6.1 | 0.00 | 0.00 | 0.00 | 1 | 1011.7 |
| 20260506090845 | 55 | 18 | 3.5 | 6.1 | 0.00 | 0.00 | 0.00 | 100 | 1011.7 |
| 20260506090746 | 55 | 10 | 4.3 | 8.7 | 0.00 | 0.00 | 0.00 | 100 | 1011.7 |
| 20260506090712 | 55 | 10 | 4.3 | 8.7 | 0.00 | 0.00 | 0.00 | 100 | 1011.7 |
| 20260506090645 | 55 | 344 | 3.5 | 8.7 | 0.00 | 0.00 | 0.00 | 100 | 1011.7 |
| 20260506090545 | 55 | 329 | 5.2 | 8.7 | 0.00 | 0.00 | 0.00 | 100 | 1011.7 |
| 20260506090444 | 55 | 51 | 3.5 | 8.7 | 0.00 | 0.00 | 0.00 | 100 | 1011.7 |
| 20260506090344 | 55 | 360 | 4.3 | 8.7 | 0.00 | 0.00 | 0.00 | 100 | 1011.7 |
| 20260506090244 | 55 | 331 | 6.1 | 9.6 | 0.00 | 0.00 | 0.00 | 100 | 1011.7 |
| 20260506090212 | 55 | 331 | 6.1 | 9.6 | 0.00 | 0.00 | 0.00 | 100 | 1011.7 |
| 20260506090146 | 54 | 350 | 3.5 | 9.6 | 0.00 | 0.00 | 0.00 | 100 | 1011.7 |
| 20260506090045 | 54 | 15 | 2.6 | 9.6 | 0.00 | 0.00 | 0.00 | 100 | 1011.8 |
| 20260506085945 | 54 | 9 | 7.8 | 9.6 | 0.00 | 0.00 | 0.00 | 100 | 1011.7 |
| 20260506085845 | 54 | 318 | 4.3 | 7.8 | 0.00 | 0.00 | 0.00 | 100 | 1011.7 |
| 20260506085745 | 54 | 360 | 3.5 | 8.7 | 0.00 | 0.00 | 0.00 | 100 | 1011.7 |
| 20260506085713 | 54 | 360 | 3.5 | 8.7 | 0.00 | 0.00 | 0.00 | 100 | 1011.7 |
| 20260506085644 | 54 | 40 | 2.6 | 8.7 | 0.00 | 0.00 | 0.00 | 100 | 1011.7 |
| 20260506085544 | 54 | 15 | 6.1 | 8.7 | 0.00 | 0.00 | 0.00 | 100 | 1011.6 |
| 20260506085444 | 53 | 9 | 4.3 | 6.1 | 0.00 | 0.00 | 0.00 | 100 | 1011.6 |
| 20260506085344 | 53 | 360 | 3.5 | 6.1 | 0.00 | 0.00 | 0.00 | 100 | 1011.7 |
| 20260506085244 | 53 | 319 | 3.5 | 7.8 | 0.00 | 0.00 | 0.00 | 100 | 1011.7 |
| 20260506085212 | 53 | 319 | 3.5 | 7.8 | 0.00 | 0.00 | 0.00 | 100 | 1011.7 |
| 20260506085144 | 53 | 334 | 2.6 | 6.1 | 0.00 | 0.00 | 0.00 | 100 | 1011.6 |
| 20260506085044 | 53 | 317 | 3.5 | 6.1 | 0.00 | 0.00 | 0.00 | 100 | 1011.6 |
| 20260506084944 | 53 | 346 | 3.5 | 3.5 | 0.00 | 0.00 | 0.00 | 100 | 1011.6 |
| 20260506084845 | 53 | 313 | 1.7 | 3.5 | 0.00 | 0.00 | 0.00 | 100 | 1011.6 |
| 20260506084745 | 53 | 351 | 3.5 | 7.0 | 0.00 | 0.00 | 0.00 | 100 | 1011.6 |
| 20260506084712 | 53 | 351 | 3.5 | 7.0 | 0.00 | 0.00 | 0.00 | 100 | 1011.6 |
| 20260506084644 | 53 | 340 | 5.2 | 7.0 | 0.00 | 0.00 | 0.00 | 100 | 1011.6 |
| 20260506084546 | 53 | 312 | 4.3 | 7.0 | 0.00 | 0.00 | 0.00 | 100 | 1011.6 |
| 20260506084445 | 53 | 345 | 7.0 | 7.0 | 0.00 | 0.00 | 0.00 | 100 | 1011.6 |
| 20260506084345 | 53 | 340 | 3.5 | 7.0 | 0.00 | 0.00 | 0.00 | 100 | 1011.5 |
| 20260506084245 | 54 | 318 | 3.5 | 8.7 | 0.00 | 0.00 | 0.00 | 100 | 1011.6 |
| 20260506084213 | 54 | 318 | 3.5 | 8.7 | 0.00 | 0.00 | 0.00 | 100 | 1011.6 |
| 20260506084145 | 54 | 324 | 3.5 | 7.8 | 0.00 | 0.00 | 0.00 | 100 | 1011.6 |
| 20260506084045 | 54 | 340 | 3.5 | 7.8 | 0.00 | 0.00 | 0.00 | 100 | 1011.5 |
| 20260506083945 | 54 | 320 | 3.5 | 6.1 | 0.00 | 0.00 | 0.00 | 100 | 1011.5 |
| 20260506083845 | 54 | 344 | 3.5 | 6.1 | 0.00 | 0.00 | 0.00 | 100 | 1011.5 |
| 20260506083745 | 54 | 355 | 6.1 | 8.7 | 0.00 | 0.00 | 0.00 | 100 | 1011.4 |
| 20260506083711 | 54 | 355 | 6.1 | 8.7 | 0.00 | 0.00 | 0.00 | 100 | 1011.4 |
| 20260506083645 | 54 | 9 | 3.5 | 8.7 | 0.00 | 0.00 | 0.00 | 100 | 1011.5 |
| 20260506083544 | 54 | 331 | 2.6 | 8.7 | 0.00 | 0.00 | 0.00 | 100 | 1011.5 |
| 20260506083444 | 54 | 336 | 7.8 | 8.7 | 0.00 | 0.00 | 0.00 | 100 | 1011.5 |
| 20260506083346 | 54 | 321 | 2.6 | 6.1 | 0.00 | 0.00 | 0.00 | 100 | 1011.5 |
| 20260506083246 | 54 | 360 | 4.3 | 7.8 | 0.00 | 0.00 | 0.00 | 100 | 1011.4 |
| 20260506083213 | 54 | 360 | 4.3 | 7.8 | 0.00 | 0.00 | 0.00 | 100 | 1011.4 |
| 20260506083144 | 54 | 350 | 4.3 | 7.8 | 0.00 | 0.00 | 0.00 | 100 | 1011.4 |
| 20260506083044 | 54 | 29 | 7.0 | 7.8 | 0.00 | 0.00 | 0.00 | 100 | 1011.4 |
| 20260506082944 | 54 | 350 | 5.2 | 7.8 | 0.00 | 0.00 | 0.00 | 100 | 1011.4 |
| 20260506082844 | 54 | 304 | 3.5 | 5.2 | 0.00 | 0.00 | 0.00 | 100 | 1011.5 |
| 20260506082744 | 54 | 328 | 4.3 | 8.7 | 0.00 | 0.00 | 0.00 | 100 | 1011.4 |
| 20260506082712 | 54 | 328 | 4.3 | 8.7 | 0.00 | 0.00 | 0.00 | 100 | 1011.4 |
| 20260506082646 | 54 | 9 | 6.1 | 8.7 | 0.00 | 0.00 | 0.00 | 100 | 1011.5 |
| 20260506082546 | 54 | 333 | 7.0 | 8.7 | 0.00 | 0.00 | 0.00 | 100 | 1011.5 |
| 20260506082446 | 54 | 24 | 5.2 | 8.7 | 0.00 | 0.00 | 0.00 | 100 | 1011.4 |
| 20260506082346 | 54 | 330 | 2.6 | 6.1 | 0.00 | 0.00 | 0.00 | 100 | 1011.5 |
| 20260506082246 | 54 | 311 | 4.3 | 8.7 | 0.00 | 0.00 | 0.00 | 100 | 1011.5 |
| 20260506082212 | 54 | 311 | 4.3 | 8.7 | 0.00 | 0.00 | 0.00 | 100 | 1011.5 |
| 20260506082145 | 54 | 333 | 3.5 | 8.7 | 0.00 | 0.00 | 0.00 | 100 | 1011.5 |
| 20260506082045 | 54 | 323 | 4.3 | 8.7 | 0.00 | 0.00 | 0.00 | 100 | 1011.5 |
| 20260506081945 | 54 | 346 | 2.6 | 8.7 | 0.00 | 0.00 | 0.00 | 100 | 1011.5 |
| 20260506081845 | 54 | 328 | 5.2 | 8.7 | 0.00 | 0.00 | 0.00 | 100 | 1011.5 |
| 20260506081745 | 54 | 349 | 4.3 | 10.4 | 0.00 | 0.00 | 0.00 | 100 | 1011.5 |
| 20260506081711 | 54 | 349 | 4.3 | 10.4 | 0.00 | 0.00 | 0.00 | 100 | 1011.5 |
| 20260506081645 | 54 | 18 | 3.5 | 9.6 | 0.00 | 0.00 | 0.00 | 100 | 1011.6 |
| 20260506081545 | 54 | 11 | 7.0 | 8.7 | 0.00 | 0.00 | 0.00 | 100 | 1011.6 |
| 20260506081445 | 54 | 355 | 7.8 | 8.7 | 0.00 | 0.00 | 0.00 | 100 | 1011.5 |
| 20260506081345 | 54 | 26 | 6.1 | 8.7 | 0.00 | 0.00 | 0.00 | 100 | 1011.5 |
| 20260506081245 | 54 | 336 | 3.5 | 7.0 | 0.00 | 0.00 | 0.00 | 100 | 1011.6 |
| 20260506081213 | 54 | 336 | 3.5 | 7.0 | 0.00 | 0.00 | 0.00 | 100 | 1011.6 |
| 20260506081145 | 54 | 340 | 5.2 | 7.0 | 0.00 | 0.00 | 0.00 | 100 | 1011.5 |
| 20260506081045 | 54 | 355 | 4.3 | 7.0 | 0.00 | 0.00 | 0.00 | 100 | 1011.5 |
| 20260506080946 | 54 | 306 | 3.5 | 7.0 | 0.00 | 0.00 | 0.00 | 100 | 1011.6 |
| 20260506080846 | 53 | 341 | 5.2 | 7.0 | 0.00 | 0.00 | 0.00 | 100 | 1011.6 |
| 20260506080745 | 54 | 32 | 3.5 | 11.3 | 0.00 | 0.00 | 0.00 | 100 | 1011.5 |
| 20260506080711 | 54 | 32 | 3.5 | 11.3 | 0.00 | 0.00 | 0.00 | 100 | 1011.5 |
| 20260506080645 | 54 | 11 | 4.3 | 11.3 | 0.00 | 0.00 | 0.00 | 100 | 1011.6 |
| 20260506080545 | 54 | 341 | 9.6 | 11.3 | 0.00 | 0.00 | 0.00 | 100 | 1011.5 |
| 20260506080445 | 54 | 325 | 8.7 | 9.6 | 0.00 | 0.00 | 0.00 | 100 | 1011.5 |
| 20260506080345 | 54 | 351 | 5.2 | 8.7 | 0.00 | 0.00 | 0.00 | 100 | 1011.5 |
| 20260506080245 | 54 | 10 | 5.2 | 8.7 | 0.00 | 0.00 | 0.00 | 100 | 1011.5 |
| 20260506080211 | 54 | 10 | 5.2 | 8.7 | 0.00 | 0.00 | 0.00 | 100 | 1011.5 |
| 20260506080145 | 54 | 299 | 5.2 | 8.7 | 0.00 | 0.00 | 0.00 | 100 | 1011.5 |
| 20260506073446 | 52 | 331 | 0.9 | 5.2 | 0.00 | 0.00 | 0.00 | 100 | 1011.5 |
| 20260506073346 | 52 | 345 | 2.6 | 3.5 | 0.00 | 0.00 | 0.00 | 100 | 1011.4 |
| 20260506073246 | 52 | 323 | 2.6 | 8.7 | 0.00 | 0.00 | 0.00 | 100 | 1011.4 |
| 20260506073213 | 52 | 323 | 2.6 | 8.7 | 0.00 | 0.00 | 0.00 | 100 | 1011.4 |
| 20260506073144 | 52 | 346 | 4.3 | 8.7 | 0.00 | 0.00 | 0.00 | 100 | 1011.4 |
| 20260506073044 | 52 | 20 | 2.6 | 7.8 | 0.00 | 0.00 | 0.00 | 100 | 1011.5 |
| 20260506072945 | 52 | 333 | 3.5 | 7.0 | 0.00 | 0.00 | 0.00 | 100 | 1011.4 |
| 20260506072845 | 52 | 21 | 2.6 | 4.3 | 0.00 | 0.00 | 0.00 | 100 | 1011.4 |
| 20260506072745 | 52 | 26 | 3.5 | 7.8 | 0.00 | 0.00 | 0.00 | 100 | 1011.4 |
| 20260506072713 | 52 | 26 | 3.5 | 7.8 | 0.00 | 0.00 | 0.00 | 100 | 1011.4 |
| 20260506072644 | 52 | 318 | 2.6 | 7.8 | 0.00 | 0.00 | 0.00 | 100 | 1011.4 |
| 20260506072545 | 52 | 337 | 4.3 | 7.8 | 0.00 | 0.00 | 0.00 | 100 | 1011.4 |
| 20260506072445 | 52 | 15 | 7.8 | 7.8 | 0.00 | 0.00 | 0.00 | 100 | 1011.4 |
| 20260506072345 | 52 | 331 | 4.3 | 6.1 | 0.00 | 0.00 | 0.00 | 100 | 1011.4 |
| 20260506072245 | 52 | 355 | 7.0 | 8.7 | 0.00 | 0.00 | 0.00 | 100 | 1011.4 |
| 20260506072211 | 52 | 355 | 7.0 | 8.7 | 0.00 | 0.00 | 0.00 | 100 | 1011.4 |
| 20260506072144 | 52 | 327 | 2.6 | 8.7 | 0.00 | 0.00 | 0.00 | 100 | 1011.4 |
| 20260506072044 | 52 | 360 | 6.1 | 8.7 | 0.00 | 0.00 | 0.00 | 100 | 1011.4 |
| 20260506071944 | 52 | 336 | 4.3 | 8.7 | 0.00 | 0.00 | 0.00 | 100 | 1011.4 |
| 20260506071846 | 52 | 5 | 7.0 | 7.0 | 0.00 | 0.00 | 0.00 | 100 | 1011.4 |
| 20260506071745 | 52 | 13 | 2.6 | 8.7 | 0.00 | 0.00 | 0.00 | 100 | 1011.4 |
| 20260506071711 | 52 | 13 | 2.6 | 8.7 | 0.00 | 0.00 | 0.00 | 100 | 1011.4 |
| 20260506071645 | 52 | 9 | 3.5 | 8.7 | 0.00 | 0.00 | 0.00 | 100 | 1011.4 |
| 20260506071545 | 52 | 329 | 2.6 | 8.7 | 0.00 | 0.00 | 0.00 | 100 | 1011.4 |
| 20260506071445 | 52 | 360 | 8.7 | 8.7 | 0.00 | 0.00 | 0.00 | 100 | 1011.4 |
| 20260506071346 | 52 | 317 | 2.6 | 5.2 | 0.00 | 0.00 | 0.00 | 100 | 1011.4 |
| 20260506071245 | 52 | 11 | 4.3 | 10.4 | 0.00 | 0.00 | 0.00 | 100 | 1011.4 |
| 20260506071211 | 52 | 11 | 4.3 | 10.4 | 0.00 | 0.00 | 0.00 | 100 | 1011.4 |
| 20260506071145 | 52 | 323 | 6.1 | 10.4 | 0.00 | 0.00 | 0.00 | 100 | 1011.4 |
| 20260506071045 | 52 | 15 | 6.1 | 8.7 | 0.00 | 0.00 | 0.00 | 100 | 1011.3 |
| 20260506070945 | 52 | 276 | 4.3 | 7.0 | 0.00 | 0.00 | 0.00 | 100 | 1011.4 |
| 20260506070844 | 52 | 350 | 6.1 | 6.1 | 0.00 | 0.00 | 0.00 | 100 | 1011.4 |
| 20260506070744 | 52 | 9 | 3.5 | 7.0 | 0.00 | 0.00 | 0.00 | 100 | 1011.4 |
| 20260506070712 | 52 | 9 | 3.5 | 7.0 | 0.00 | 0.00 | 0.00 | 100 | 1011.4 |
| 20260506070644 | 52 | 333 | 2.6 | 7.0 | 0.00 | 0.00 | 0.00 | 100 | 1011.4 |
| 20260506070546 | 52 | 342 | 2.6 | 7.0 | 0.00 | 0.00 | 0.00 | 100 | 1011.5 |
| 20260506070445 | 52 | 341 | 3.5 | 7.0 | 0.00 | 0.00 | 0.00 | 100 | 1011.4 |
| 20260506070345 | 52 | 347 | 6.1 | 7.0 | 0.00 | 0.00 | 0.00 | 100 | 1011.4 |
| 20260506070245 | 52 | 55 | 4.3 | 8.7 | 0.00 | 0.00 | 0.00 | 100 | 1011.4 |
| 20260506070213 | 52 | 55 | 4.3 | 8.7 | 0.00 | 0.00 | 0.00 | 100 | 1011.4 |
| 20260506070144 | 52 | 346 | 5.2 | 8.7 | 0.00 | 0.00 | 0.00 | 100 | 1011.4 |
| 20260506062444 | 51 | 348 | 2.6 | 3.5 | 0.00 | 0.00 | 0.00 | 100 | 1011.3 |
| 20260506062344 | 51 | 336 | 2.6 | 2.6 | 0.00 | 0.00 | 0.00 | 100 | 1011.3 |
| 20260506062246 | 51 | 311 | 2.6 | 7.8 | 0.00 | 0.00 | 0.00 | 100 | 1011.3 |
| 20260506062212 | 51 | 311 | 2.6 | 7.8 | 0.00 | 0.00 | 0.00 | 100 | 1011.3 |
| 20260506062146 | 51 | 355 | 3.5 | 7.8 | 0.00 | 0.00 | 0.00 | 100 | 1011.3 |
| 20260506062045 | 51 | 325 | 2.6 | 7.8 | 0.00 | 0.00 | 0.00 | 100 | 1011.3 |
| 20260506061945 | 51 | 338 | 4.3 | 7.8 | 0.00 | 0.00 | 0.00 | 100 | 1011.3 |
| 20260506061845 | 51 | 15 | 2.6 | 7.8 | 0.00 | 0.00 | 0.00 | 100 | 1011.3 |
| 20260506061744 | 50 | 342 | 7.0 | 7.8 | 0.00 | 0.00 | 0.00 | 100 | 1011.3 |
| 20260506061712 | 50 | 342 | 7.0 | 7.8 | 0.00 | 0.00 | 0.00 | 100 | 1011.3 |
| 20260506061644 | 50 | 344 | 3.5 | 4.3 | 0.00 | 0.00 | 0.00 | 100 | 1011.3 |
| 20260506061546 | 50 | 342 | 3.5 | 4.3 | 0.00 | 0.00 | 0.00 | 100 | 1011.3 |
| 20260506061445 | 50 | 290 | 2.6 | 4.3 | 0.00 | 0.00 | 0.00 | 100 | 1011.3 |
| 20260506061345 | 50 | 348 | 2.6 | 3.5 | 0.00 | 0.00 | 0.00 | 100 | 1011.3 |
| 20260506061245 | 50 | 355 | 2.6 | 6.1 | 0.00 | 0.00 | 0.00 | 100 | 1011.3 |
| 20260506061213 | 50 | 355 | 2.6 | 6.1 | 0.00 | 0.00 | 0.00 | 100 | 1011.3 |
| 20260506061145 | 50 | 329 | 1.7 | 6.1 | 0.00 | 0.00 | 0.00 | 100 | 1011.3 |
| 20260506061045 | 50 | 346 | 1.7 | 6.1 | 0.00 | 0.00 | 0.00 | 100 | 1011.3 |
| 20260506060945 | 50 | 351 | 2.6 | 6.1 | 0.00 | 0.00 | 0.00 | 100 | 1011.2 |
| 20260506060845 | 50 | 331 | 2.6 | 6.1 | 0.00 | 0.00 | 0.00 | 100 | 1011.2 |
| 20260506060745 | 50 | 348 | 3.5 | 6.1 | 0.00 | 0.00 | 0.00 | 100 | 1011.2 |
| 20260506060713 | 50 | 348 | 3.5 | 6.1 | 0.00 | 0.00 | 0.00 | 100 | 1011.2 |
| 20260506060644 | 50 | 334 | 6.1 | 6.1 | 0.00 | 0.00 | 0.00 | 100 | 1011.2 |
| 20260506060544 | 50 | 348 | 2.6 | 5.2 | 0.00 | 0.00 | 0.00 | 100 | 1011.2 |
| 20260506060444 | 49 | 12 | 4.3 | 5.2 | 0.00 | 0.00 | 0.00 | 100 | 1011.2 |
| 20260506060344 | 49 | 344 | 1.7 | 3.5 | 0.00 | 0.00 | 0.00 | 100 | 1011.1 |
| 20260506060244 | 49 | 346 | 4.3 | 7.8 | 0.00 | 0.00 | 0.00 | 100 | 1011.1 |
| 20260506060212 | 49 | 346 | 4.3 | 7.8 | 0.00 | 0.00 | 0.00 | 100 | 1011.1 |
| 20260506060146 | 49 | 343 | 2.6 | 7.0 | 0.00 | 0.00 | 0.00 | 100 | 1011.2 |
| 20260506051345 | 49 | 355 | 2.6 | 2.6 | 0.00 | 0.00 | 0.00 | 100 | 1011.1 |
| 20260506051244 | 49 | 15 | 0.9 | 5.2 | 0.00 | 0.00 | 0.00 | 100 | 1011.1 |
| 20260506051212 | 49 | 15 | 0.9 | 5.2 | 0.00 | 0.00 | 0.00 | 100 | 1011.1 |
| 20260506051144 | 49 | 350 | 1.7 | 5.2 | 0.00 | 0.00 | 0.00 | 100 | 1011.1 |
| 20260506051044 | 49 | 25 | 2.6 | 5.2 | 0.00 | 0.00 | 0.00 | 100 | 1011.1 |
| 20260506050945 | 49 | 355 | 2.6 | 2.6 | 0.00 | 0.00 | 0.00 | 100 | 1011.1 |
| 20260506050845 | 49 | 304 | 0.9 | 2.6 | 0.00 | 0.00 | 0.00 | 100 | 1011.1 |
| 20260506050745 | 49 | 316 | 1.7 | 3.5 | 0.00 | 0.00 | 0.00 | 100 | 1011.1 |
| 20260506050713 | 49 | 316 | 1.7 | 3.5 | 0.00 | 0.00 | 0.00 | 100 | 1011.1 |
| 20260506050645 | 49 | 320 | 2.6 | 2.6 | 0.00 | 0.00 | 0.00 | 100 | 1011.1 |
| 20260506050545 | 49 | 323 | 1.7 | 2.6 | 0.00 | 0.00 | 0.00 | 100 | 1011.1 |
| 20260506050445 | 49 | 360 | 1.7 | 2.6 | 0.00 | 0.00 | 0.00 | 100 | 1011.1 |
| 20260506050345 | 49 | 19 | 1.7 | 1.7 | 0.00 | 0.00 | 0.00 | 100 | 1011.1 |
| 20260506050245 | 49 | 275 | 0.0 | 2.6 | 0.00 | 0.00 | 0.00 | 100 | 1011.0 |
| 20260506050212 | 49 | 275 | 0.0 | 2.6 | 0.00 | 0.00 | 0.00 | 100 | 1011.0 |
| 20260506050144 | 49 | 275 | 0.9 | 2.6 | 0.00 | 0.00 | 0.00 | 100 | 1011.0 |
| 20260506045045 | 50 | 341 | 1.7 | 2.6 | 0.00 | 0.00 | 0.00 | 100 | 1010.9 |
| 20260506044945 | 50 | 305 | 0.9 | 2.6 | 0.00 | 0.00 | 0.00 | 100 | 1010.9 |
| 20260506044845 | 50 | 334 | 1.7 | 1.7 | 0.00 | 0.00 | 0.00 | 100 | 1010.9 |
| 20260506044745 | 50 | 315 | 2.6 | 3.5 | 0.00 | 0.00 | 0.00 | 100 | 1010.9 |
| 20260506044711 | 50 | 315 | 2.6 | 3.5 | 0.00 | 0.00 | 0.00 | 100 | 1010.9 |
| 20260506044645 | 50 | 333 | 1.7 | 3.5 | 0.00 | 0.00 | 0.00 | 100 | 1010.9 |
| 20260506044545 | 50 | 328 | 2.6 | 3.5 | 0.00 | 0.00 | 0.00 | 100 | 1010.9 |
| 20260506044445 | 50 | 347 | 1.7 | 3.5 | 0.00 | 0.00 | 0.00 | 100 | 1010.9 |
| 20260506044344 | 50 | 344 | 1.7 | 3.5 | 0.00 | 0.00 | 0.00 | 100 | 1010.9 |
| 20260506044245 | 50 | 5 | 0.9 | 3.5 | 0.00 | 0.00 | 0.00 | 100 | 1010.9 |
| 20260506044211 | 50 | 5 | 0.9 | 3.5 | 0.00 | 0.00 | 0.00 | 100 | 1010.9 |
| 20260506044145 | 50 | 331 | 2.6 | 3.5 | 0.00 | 0.00 | 0.00 | 100 | 1010.9 |
| 20260506044045 | 50 | 360 | 2.6 | 3.5 | 0.00 | 0.00 | 0.00 | 100 | 1010.8 |
| 20260506043945 | 50 | 325 | 0.9 | 2.6 | 0.00 | 0.00 | 0.00 | 100 | 1010.8 |
| 20260506043846 | 50 | 350 | 0.9 | 2.6 | 0.00 | 0.00 | 0.00 | 100 | 1010.8 |
| 20260506043746 | 50 | 20 | 1.7 | 2.6 | 0.00 | 0.00 | 0.00 | 100 | 1010.8 |
| 20260506043712 | 50 | 20 | 1.7 | 2.6 | 0.00 | 0.00 | 0.00 | 100 | 1010.8 |
| 20260506043646 | 50 | 331 | 0.9 | 2.6 | 0.00 | 0.00 | 0.00 | 100 | 1010.8 |
| 20260506043546 | 50 | 331 | 1.7 | 2.6 | 0.00 | 0.00 | 0.00 | 100 | 1010.8 |
| 20260506043446 | 50 | 336 | 2.6 | 2.6 | 0.00 | 0.00 | 0.00 | 100 | 1010.9 |
| 20260506043345 | 50 | 348 | 1.7 | 2.6 | 0.00 | 0.00 | 0.00 | 100 | 1010.8 |
| 20260506043245 | 50 | 5 | 1.7 | 3.5 | 0.00 | 0.00 | 0.00 | 100 | 1010.9 |
| 20260506043212 | 50 | 5 | 1.7 | 3.5 | 0.00 | 0.00 | 0.00 | 100 | 1010.9 |
| 20260506043145 | 50 | 355 | 1.7 | 3.5 | 0.00 | 0.00 | 0.00 | 100 | 1010.9 |
| 20260506043045 | 50 | 360 | 1.7 | 3.5 | 0.00 | 0.00 | 0.00 | 100 | 1010.8 |
| 20260506042945 | 50 | 9 | 0.0 | 3.5 | 0.00 | 0.00 | 0.00 | 100 | 1010.9 |
| 20260506042845 | 50 | 329 | 3.5 | 3.5 | 0.00 | 0.00 | 0.00 | 100 | 1010.9 |
| 20260506042745 | 50 | 324 | 2.6 | 2.6 | 0.00 | 0.00 | 0.00 | 100 | 1010.9 |
| 20260506042711 | 50 | 324 | 2.6 | 2.6 | 0.00 | 0.00 | 0.00 | 100 | 1010.9 |
| 20260506042645 | 50 | 347 | 0.0 | 2.6 | 0.00 | 0.00 | 0.00 | 100 | 1010.9 |
| 20260506042546 | 50 | 346 | 2.6 | 2.6 | 0.00 | 0.00 | 0.00 | 100 | 1011.0 |
| 20260506042446 | 50 | 327 | 1.7 | 2.6 | 0.00 | 0.00 | 0.00 | 100 | 1010.9 |
| 20260506042346 | 50 | 286 | 0.9 | 0.9 | 0.00 | 0.00 | 0.00 | 100 | 1011.0 |
| 20260506042246 | 50 | 286 | 0.9 | 2.6 | 0.00 | 0.00 | 0.00 | 100 | 1010.9 |
| 20260506042212 | 50 | 286 | 0.9 | 2.6 | 0.00 | 0.00 | 0.00 | 100 | 1010.9 |
| 20260506042145 | 50 | 286 | 0.9 | 2.6 | 0.00 | 0.00 | 0.00 | 100 | 1010.9 |
| 20260506042045 | 50 | 286 | 0.0 | 2.6 | 0.00 | 0.00 | 0.00 | 100 | 1010.9 |
| 20260506041945 | 50 | 303 | 0.9 | 2.6 | 0.00 | 0.00 | 0.00 | 100 | 1010.8 |
| 20260506041845 | 50 | 316 | 0.9 | 1.7 | 0.00 | 0.00 | 0.00 | 100 | 1010.9 |
| 20260506041746 | 50 | 300 | 0.9 | 2.6 | 0.00 | 0.00 | 0.00 | 100 | 1010.9 |
| 20260506041711 | 50 | 300 | 0.9 | 2.6 | 0.00 | 0.00 | 0.00 | 100 | 1010.9 |
| 20260506041645 | 50 | 296 | 1.7 | 1.7 | 0.00 | 0.00 | 0.00 | 100 | 1010.9 |
| 20260506041544 | 50 | 288 | 0.0 | 1.7 | 0.00 | 0.00 | 0.00 | 100 | 1010.8 |
| 20260506041444 | 50 | 288 | 0.9 | 1.7 | 0.00 | 0.00 | 0.00 | 100 | 1010.9 |
| 20260506041345 | 50 | 296 | 0.9 | 1.7 | 0.00 | 0.00 | 0.00 | 100 | 1010.9 |
| 20260506041245 | 50 | 273 | 1.7 | 2.6 | 0.00 | 0.00 | 0.00 | 100 | 1010.8 |
| 20260506041213 | 50 | 273 | 1.7 | 2.6 | 0.00 | 0.00 | 0.00 | 100 | 1010.8 |
| 20260506041145 | 50 | 265 | 1.7 | 2.6 | 0.00 | 0.00 | 0.00 | 100 | 1010.9 |
| 20260506041045 | 50 | 231 | 2.6 | 2.6 | 0.00 | 0.00 | 0.00 | 100 | 1010.9 |
| 20260506040944 | 50 | 279 | 0.9 | 1.7 | 0.00 | 0.00 | 0.00 | 100 | 1010.9 |
| 20260506040844 | 51 | 329 | 0.0 | 0.9 | 0.00 | 0.00 | 0.00 | 100 | 1010.9 |
| 20260506040745 | 51 | 321 | 0.9 | 1.7 | 0.00 | 0.00 | 0.00 | 100 | 1010.9 |
| 20260506040711 | 51 | 321 | 0.9 | 1.7 | 0.00 | 0.00 | 0.00 | 100 | 1010.9 |
| 20260506040645 | 51 | 319 | 0.0 | 1.7 | 0.00 | 0.00 | 0.00 | 100 | 1010.8 |
| 20260506040545 | 51 | 319 | 0.0 | 1.7 | 0.00 | 0.00 | 0.00 | 100 | 1010.9 |
| 20260506040445 | 51 | 319 | 0.9 | 1.7 | 0.00 | 0.00 | 0.00 | 100 | 1010.8 |
| 20260506040345 | 51 | 319 | 0.0 | 1.7 | 0.00 | 0.00 | 0.00 | 100 | 1010.8 |
| 20260506040245 | 51 | 307 | 1.7 | 2.6 | 0.00 | 0.00 | 0.00 | 100 | 1010.9 |
| 20260506040211 | 51 | 307 | 1.7 | 2.6 | 0.00 | 0.00 | 0.00 | 100 | 1010.9 |
| 20260506040146 | 51 | 325 | 2.6 | 2.6 | 0.00 | 0.00 | 0.00 | 100 | 1010.9 |
| 20260506040045 | 51 | 293 | 0.9 | 1.7 | 0.00 | 0.00 | 0.00 | 100 | 1010.9 |
| 20260506035945 | 51 | 330 | 0.0 | 0.9 | 0.00 | 0.00 | 0.00 | 100 | 1010.9 |
| 20260506035845 | 51 | 331 | 0.0 | 0.9 | 0.00 | 0.00 | 0.00 | 100 | 1010.9 |
| 20260506035746 | 51 | 331 | 1.7 | 2.6 | 0.00 | 0.00 | 0.00 | 100 | 1010.9 |
| 20260506035711 | 51 | 331 | 1.7 | 2.6 | 0.00 | 0.00 | 0.00 | 100 | 1010.9 |
| 20260506035645 | 51 | 342 | 1.7 | 2.6 | 0.00 | 0.00 | 0.00 | 100 | 1010.9 |
| 20260506035545 | 51 | 336 | 0.9 | 2.6 | 0.00 | 0.00 | 0.00 | 100 | 1010.9 |
| 20260506035445 | 51 | 322 | 0.0 | 2.6 | 0.00 | 0.00 | 0.00 | 100 | 1010.9 |
| 20260506035345 | 51 | 275 | 0.0 | 2.6 | 0.00 | 0.00 | 0.00 | 100 | 1010.9 |
| 20260506035244 | 51 | 275 | 2.6 | 2.6 | 0.00 | 0.00 | 0.00 | 100 | 1011.0 |
| 20260506035212 | 51 | 275 | 2.6 | 2.6 | 0.00 | 0.00 | 0.00 | 100 | 1011.0 |
| 20260506035146 | 51 | 313 | 0.9 | 2.6 | 0.00 | 0.00 | 0.00 | 100 | 1011.0 |
| 20260506035046 | 51 | 268 | 0.9 | 2.6 | 0.00 | 0.00 | 0.00 | 100 | 1010.9 |
| 20260506034946 | 51 | 290 | 0.9 | 0.9 | 0.00 | 0.00 | 0.00 | 100 | 1011.0 |
| 20260506034845 | 51 | 290 | 0.0 | 0.0 | 0.00 | 0.00 | 0.00 | 100 | 1011.0 |
| 20260506034745 | 51 | 290 | 0.0 | 2.6 | 0.00 | 0.00 | 0.00 | 100 | 1010.9 |
| 20260506034713 | 51 | 290 | 0.0 | 2.6 | 0.00 | 0.00 | 0.00 | 100 | 1010.9 |
| 20260506034644 | 51 | 290 | 1.7 | 2.6 | 0.00 | 0.00 | 0.00 | 100 | 1011.0 |
| 20260506034544 | 51 | 339 | 0.9 | 2.6 | 0.00 | 0.00 | 0.00 | 100 | 1010.9 |
| 20260506034444 | 51 | 293 | 0.9 | 2.6 | 0.00 | 0.00 | 0.00 | 100 | 1011.0 |
| 20260506034344 | 51 | 298 | 0.0 | 1.7 | 0.00 | 0.00 | 0.00 | 100 | 1011.0 |
| 20260506034244 | 51 | 329 | 1.7 | 2.6 | 0.00 | 0.00 | 0.00 | 100 | 1011.0 |
| 20260506034212 | 51 | 329 | 1.7 | 2.6 | 0.00 | 0.00 | 0.00 | 100 | 1011.0 |
| 20260506034144 | 51 | 323 | 1.7 | 2.6 | 0.00 | 0.00 | 0.00 | 100 | 1011.0 |
| 20260506034044 | 51 | 311 | 0.9 | 2.6 | 0.00 | 0.00 | 0.00 | 100 | 1011.0 |
| 20260506033944 | 51 | 291 | 2.6 | 2.6 | 0.00 | 0.00 | 0.00 | 100 | 1011.0 |
| 20260506033844 | 51 | 323 | 0.9 | 1.7 | 0.00 | 0.00 | 0.00 | 100 | 1011.0 |
| 20260506033744 | 51 | 341 | 0.0 | 4.3 | 0.00 | 0.00 | 0.00 | 100 | 1011.0 |
| 20260506033712 | 51 | 341 | 0.0 | 4.3 | 0.00 | 0.00 | 0.00 | 100 | 1011.0 |
| 20260506033646 | 51 | 341 | 0.0 | 4.3 | 0.00 | 0.00 | 0.00 | 100 | 1011.1 |
| 20260506033545 | 51 | 341 | 0.0 | 4.3 | 0.00 | 0.00 | 0.00 | 100 | 1011.0 |
| 20260506033445 | 51 | 349 | 0.9 | 4.3 | 0.00 | 0.00 | 0.00 | 100 | 1011.1 |
| 20260506033346 | 51 | 336 | 2.6 | 4.3 | 0.00 | 0.00 | 0.00 | 100 | 1011.0 |
| 20260506033246 | 51 | 321 | 4.3 | 4.3 | 0.00 | 0.00 | 0.00 | 100 | 1011.0 |
| 20260506033211 | 51 | 321 | 4.3 | 4.3 | 0.00 | 0.00 | 0.00 | 100 | 1011.0 |
| 20260506033145 | 51 | 299 | 0.9 | 2.6 | 0.00 | 0.00 | 0.00 | 100 | 1011.0 |
| 20260506033044 | 51 | 322 | 1.7 | 2.6 | 0.00 | 0.00 | 0.00 | 100 | 1011.0 |
| 20260506032946 | 51 | 296 | 0.9 | 1.7 | 0.00 | 0.00 | 0.00 | 100 | 1011.0 |
| 20260506032845 | 51 | 305 | 0.0 | 0.9 | 0.00 | 0.00 | 0.00 | 100 | 1011.0 |
| 20260506032745 | 52 | 326 | 1.7 | 3.5 | 0.00 | 0.00 | 0.00 | 100 | 1011.0 |
| 20260506032711 | 52 | 326 | 1.7 | 3.5 | 0.00 | 0.00 | 0.00 | 100 | 1011.0 |
| 20260506032645 | 52 | 340 | 0.9 | 3.5 | 0.00 | 0.00 | 0.00 | 100 | 1011.0 |
| 20260506032545 | 52 | 9 | 2.6 | 3.5 | 0.00 | 0.00 | 0.00 | 100 | 1011.0 |
| 20260506032445 | 52 | 309 | 2.6 | 3.5 | 0.00 | 0.00 | 0.00 | 100 | 1011.0 |
| 20260506032345 | 52 | 323 | 0.9 | 2.6 | 0.00 | 0.00 | 0.00 | 100 | 1011.1 |
| 20260506032245 | 52 | 302 | 2.6 | 5.2 | 0.00 | 0.00 | 0.00 | 100 | 1011.1 |
| 20260506032213 | 52 | 302 | 2.6 | 5.2 | 0.00 | 0.00 | 0.00 | 100 | 1011.1 |
| 20260506032145 | 52 | 300 | 0.9 | 4.3 | 0.00 | 0.00 | 0.00 | 100 | 1011.1 |
| 20260506032045 | 52 | 300 | 1.7 | 4.3 | 0.00 | 0.00 | 0.00 | 100 | 1011.1 |
| 20260506031945 | 52 | 286 | 1.7 | 4.3 | 0.00 | 0.00 | 0.00 | 100 | 1011.0 |
| 20260506031845 | 52 | 273 | 4.3 | 4.3 | 0.00 | 0.00 | 0.00 | 100 | 1011.0 |
| 20260506031746 | 52 | 327 | 2.6 | 2.6 | 0.00 | 0.00 | 0.00 | 100 | 1011.0 |
| 20260506031712 | 52 | 327 | 2.6 | 2.6 | 0.00 | 0.00 | 0.00 | 100 | 1011.0 |
| 20260506031645 | 52 | 340 | 0.0 | 2.6 | 0.00 | 0.00 | 0.00 | 100 | 1011.1 |
| 20260506031545 | 52 | 298 | 0.9 | 1.7 | 0.00 | 0.00 | 0.00 | 100 | 1011.0 |
| 20260506031445 | 52 | 303 | 0.9 | 1.7 | 0.00 | 0.00 | 0.00 | 100 | 1011.0 |
| 20260506031345 | 52 | 303 | 0.9 | 1.7 | 0.00 | 0.00 | 0.00 | 100 | 1011.0 |
| 20260506031245 | 52 | 303 | 1.7 | 2.6 | 0.00 | 0.00 | 0.00 | 100 | 1011.0 |
| 20260506031211 | 52 | 303 | 1.7 | 2.6 | 0.00 | 0.00 | 0.00 | 100 | 1011.0 |
| 20260506031145 | 52 | 336 | 2.6 | 2.6 | 0.00 | 0.00 | 0.00 | 100 | 1011.0 |
| 20260506031045 | 52 | 360 | 2.6 | 2.6 | 0.00 | 0.00 | 0.00 | 100 | 1011.0 |
| 20260506030945 | 52 | 289 | 2.6 | 2.6 | 0.00 | 0.00 | 0.00 | 100 | 1011.0 |
| 20260506030845 | 52 | 302 | 0.9 | 0.9 | 0.00 | 0.00 | 0.00 | 100 | 1011.0 |
| 20260506030745 | 52 | 286 | 0.0 | 2.6 | 0.00 | 0.00 | 0.00 | 100 | 1011.1 |
| 20260506030713 | 52 | 286 | 0.0 | 2.6 | 0.00 | 0.00 | 0.00 | 100 | 1011.1 |
| 20260506030645 | 52 | 286 | 0.0 | 2.6 | 0.00 | 0.00 | 0.00 | 100 | 1011.0 |
| 20260506030545 | 52 | 286 | 1.7 | 2.6 | 0.00 | 0.00 | 0.00 | 100 | 1011.0 |
| 20260506030446 | 52 | 346 | 0.9 | 2.6 | 0.00 | 0.00 | 0.00 | 100 | 1011.1 |
| 20260506030346 | 52 | 13 | 0.0 | 1.7 | 0.00 | 0.00 | 0.00 | 100 | 1011.1 |
| 20260506030246 | 52 | 348 | 1.7 | 2.6 | 0.00 | 0.00 | 0.00 | 100 | 1011.1 |
| 20260506030212 | 52 | 348 | 1.7 | 2.6 | 0.00 | 0.00 | 0.00 | 100 | 1011.1 |
| 20260506030145 | 52 | 321 | 1.7 | 2.6 | 0.00 | 0.00 | 0.00 | 100 | 1011.1 |
| 20260506030045 | 52 | 342 | 2.6 | 2.6 | 0.00 | 0.00 | 0.00 | 100 | 1011.1 |
| 20260506025944 | 52 | 332 | 0.9 | 2.6 | 0.00 | 0.00 | 0.00 | 100 | 1011.1 |
| 20260506025844 | 52 | 276 | 1.7 | 2.6 | 0.00 | 0.00 | 0.00 | 100 | 1011.2 |
| 20260506025744 | 52 | 303 | 2.6 | 6.1 | 0.00 | 0.00 | 0.00 | 100 | 1011.2 |
| 20260506025712 | 52 | 303 | 2.6 | 6.1 | 0.00 | 0.00 | 0.00 | 100 | 1011.2 |
| 20260506025644 | 52 | 250 | 0.9 | 2.6 | 0.00 | 0.00 | 0.00 | 100 | 1011.2 |
| 20260506025544 | 52 | 290 | 0.0 | 0.9 | 0.00 | 0.00 | 0.00 | 100 | 1011.2 |
| 20260506025444 | 52 | 290 | 0.0 | 0.9 | 0.00 | 0.00 | 0.00 | 100 | 1011.2 |
| 20260506025346 | 52 | 290 | 0.0 | 0.9 | 0.00 | 0.00 | 0.00 | 100 | 1011.2 |
| 20260506025246 | 52 | 290 | 0.0 | 2.6 | 0.00 | 0.00 | 0.00 | 100 | 1011.2 |
| 20260506025212 | 52 | 290 | 0.0 | 2.6 | 0.00 | 0.00 | 0.00 | 100 | 1011.2 |
| 20260506025146 | 52 | 290 | 0.0 | 2.6 | 0.00 | 0.00 | 0.00 | 100 | 1011.2 |
| 20260506025046 | 52 | 290 | 0.0 | 2.6 | 0.00 | 0.00 | 0.00 | 100 | 1011.2 |
| 20260506024946 | 52 | 287 | 2.6 | 2.6 | 0.00 | 0.00 | 0.00 | 100 | 1011.2 |
| 20260506024846 | 52 | 296 | 0.0 | 0.0 | 0.00 | 0.00 | 0.00 | 100 | 1011.2 |
| 20260506024746 | 52 | 296 | 0.9 | 1.7 | 0.00 | 0.00 | 0.00 | 100 | 1011.2 |
| 20260506024712 | 52 | 296 | 0.9 | 1.7 | 0.00 | 0.00 | 0.00 | 100 | 1011.2 |
| 20260506024645 | 52 | 326 | 0.9 | 1.7 | 0.00 | 0.00 | 0.00 | 100 | 1011.2 |
| 20260506024545 | 52 | 326 | 0.0 | 1.7 | 0.00 | 0.00 | 0.00 | 100 | 1011.2 |
| 20260506024445 | 52 | 302 | 0.9 | 1.7 | 0.00 | 0.00 | 0.00 | 100 | 1011.2 |
| 20260506024345 | 52 | 318 | 1.7 | 1.7 | 0.00 | 0.00 | 0.00 | 100 | 1011.2 |
| 20260506024245 | 52 | 332 | 1.7 | 2.6 | 0.00 | 0.00 | 0.00 | 100 | 1011.2 |
| 20260506024213 | 52 | 332 | 1.7 | 2.6 | 0.00 | 0.00 | 0.00 | 100 | 1011.2 |
| 20260506024145 | 52 | 331 | 1.7 | 2.6 | 0.00 | 0.00 | 0.00 | 100 | 1011.3 |
| 20260506024045 | 52 | 333 | 1.7 | 2.6 | 0.00 | 0.00 | 0.00 | 100 | 1011.2 |
| 20260506023946 | 52 | 342 | 0.9 | 2.6 | 0.00 | 0.00 | 0.00 | 100 | 1011.2 |
| 20260506023846 | 52 | 327 | 1.7 | 2.6 | 0.00 | 0.00 | 0.00 | 100 | 1011.2 |
| 20260506023746 | 52 | 333 | 2.6 | 4.3 | 0.00 | 0.00 | 0.00 | 100 | 1011.2 |
| 20260506023712 | 52 | 333 | 2.6 | 4.3 | 0.00 | 0.00 | 0.00 | 100 | 1011.2 |
| 20260506023646 | 52 | 5 | 2.6 | 4.3 | 0.00 | 0.00 | 0.00 | 100 | 1011.3 |
| 20260506023546 | 52 | 329 | 2.6 | 4.3 | 0.00 | 0.00 | 0.00 | 100 | 1011.3 |
| 20260506023445 | 52 | 34 | 0.9 | 4.3 | 0.00 | 0.00 | 0.00 | 100 | 1011.2 |
| 20260506023346 | 52 | 20 | 1.7 | 4.3 | 0.00 | 0.00 | 0.00 | 100 | 1011.3 |
| 20260506023245 | 52 | 346 | 1.7 | 2.6 | 0.00 | 0.00 | 0.00 | 100 | 1011.3 |
| 20260506023211 | 52 | 346 | 1.7 | 2.6 | 0.00 | 0.00 | 0.00 | 100 | 1011.3 |
| 20260506023145 | 52 | 340 | 1.7 | 2.6 | 0.00 | 0.00 | 0.00 | 100 | 1011.3 |
| 20260506023044 | 52 | 329 | 2.6 | 2.6 | 0.00 | 0.00 | 0.00 | 100 | 1011.3 |
| 20260506022944 | 52 | 337 | 1.7 | 2.6 | 0.00 | 0.00 | 0.00 | 100 | 1011.3 |
| 20260506022844 | 52 | 15 | 1.7 | 2.6 | 0.00 | 0.00 | 0.00 | 100 | 1011.3 |
| 20260506022744 | 52 | 9 | 2.6 | 3.5 | 0.00 | 0.00 | 0.00 | 100 | 1011.3 |
| 20260506022712 | 52 | 9 | 2.6 | 3.5 | 0.00 | 0.00 | 0.00 | 100 | 1011.3 |
| 20260506022646 | 52 | 12 | 1.7 | 2.6 | 0.00 | 0.00 | 0.00 | 100 | 1011.3 |
| 20260506022546 | 52 | 351 | 1.7 | 2.6 | 0.00 | 0.00 | 0.00 | 100 | 1011.3 |
| 20260506022446 | 52 | 341 | 1.7 | 2.6 | 0.00 | 0.00 | 0.00 | 100 | 1011.3 |
| 20260506022346 | 52 | 350 | 2.6 | 2.6 | 0.00 | 0.00 | 0.00 | 100 | 1011.3 |
| 20260506022246 | 52 | 350 | 1.7 | 3.5 | 0.00 | 0.00 | 0.00 | 100 | 1011.3 |
| 20260506022212 | 52 | 350 | 1.7 | 3.5 | 0.00 | 0.00 | 0.00 | 100 | 1011.3 |
| 20260506022146 | 52 | 333 | 0.9 | 3.5 | 0.00 | 0.00 | 0.00 | 100 | 1011.4 |
| 20260506022046 | 52 | 337 | 1.7 | 3.5 | 0.00 | 0.00 | 0.00 | 100 | 1011.3 |
| 20260506021946 | 52 | 342 | 0.9 | 3.5 | 0.00 | 0.00 | 0.00 | 100 | 1011.3 |
| 20260506021846 | 52 | 9 | 3.5 | 3.5 | 0.00 | 0.00 | 0.00 | 100 | 1011.4 |
| 20260506021746 | 52 | 334 | 2.6 | 4.3 | 0.00 | 0.00 | 0.00 | 100 | 1011.4 |
| 20260506021712 | 52 | 334 | 2.6 | 4.3 | 0.00 | 0.00 | 0.00 | 100 | 1011.4 |
| 20260506021645 | 52 | 346 | 4.3 | 4.3 | 0.00 | 0.00 | 0.00 | 100 | 1011.4 |
| 20260506021545 | 52 | 355 | 2.6 | 4.3 | 0.00 | 0.00 | 0.00 | 100 | 1011.4 |
| 20260506021445 | 52 | 332 | 4.3 | 4.3 | 0.00 | 0.00 | 0.00 | 100 | 1011.4 |
| 20260506021345 | 52 | 344 | 2.6 | 2.6 | 0.00 | 0.00 | 0.00 | 100 | 1011.3 |
| 20260506021245 | 52 | 347 | 2.6 | 3.5 | 0.00 | 0.00 | 0.00 | 100 | 1011.3 |
| 20260506021213 | 52 | 347 | 2.6 | 3.5 | 0.00 | 0.00 | 0.00 | 100 | 1011.3 |
| 20260506021145 | 52 | 327 | 0.9 | 3.5 | 0.00 | 0.00 | 0.00 | 100 | 1011.4 |
| 20260506021045 | 52 | 11 | 2.6 | 2.6 | 0.00 | 0.00 | 0.00 | 100 | 1011.3 |
| 20260506020944 | 52 | 13 | 2.6 | 2.6 | 0.00 | 0.00 | 0.00 | 100 | 1011.3 |
| 20260506020846 | 52 | 332 | 1.7 | 2.6 | 0.00 | 0.00 | 0.00 | 100 | 1011.3 |
| 20260506020745 | 52 | 9 | 1.7 | 6.1 | 0.00 | 0.00 | 0.00 | 100 | 1011.3 |
| 20260506020711 | 52 | 9 | 1.7 | 6.1 | 0.00 | 0.00 | 0.00 | 100 | 1011.3 |
| 20260506020645 | 52 | 5 | 2.6 | 6.1 | 0.00 | 0.00 | 0.00 | 100 | 1011.3 |
| 20260506020545 | 52 | 338 | 2.6 | 6.1 | 0.00 | 0.00 | 0.00 | 100 | 1011.3 |
| 20260506020446 | 52 | 329 | 4.3 | 4.3 | 0.00 | 0.00 | 0.00 | 100 | 1011.4 |
| 20260506020345 | 52 | 340 | 3.5 | 3.5 | 0.00 | 0.00 | 0.00 | 100 | 1011.4 |
| 20260506020245 | 52 | 344 | 2.6 | 3.5 | 0.00 | 0.00 | 0.00 | 100 | 1011.3 |
| 20260506020212 | 52 | 344 | 2.6 | 3.5 | 0.00 | 0.00 | 0.00 | 100 | 1011.3 |
| 20260506020146 | 52 | 33 | 2.6 | 3.5 | 0.00 | 0.00 | 0.00 | 100 | 1011.4 |
| 20260506020046 | 52 | 347 | 3.5 | 3.5 | 0.00 | 0.00 | 0.00 | 100 | 1011.4 |
| 20260506015946 | 52 | 355 | 1.7 | 2.6 | 0.00 | 0.00 | 0.00 | 100 | 1011.4 |
| 20260506015846 | 52 | 339 | 2.6 | 2.6 | 0.00 | 0.00 | 0.00 | 100 | 1011.4 |
| 20260506015746 | 52 | 339 | 3.5 | 6.1 | 0.00 | 0.00 | 0.00 | 100 | 1011.4 |
| 20260506015712 | 52 | 339 | 3.5 | 6.1 | 0.00 | 0.00 | 0.00 | 100 | 1011.4 |
| 20260506015646 | 53 | 37 | 2.6 | 2.6 | 0.00 | 0.00 | 0.00 | 100 | 1011.4 |
| 20260506015546 | 53 | 340 | 1.7 | 2.6 | 0.00 | 0.00 | 0.00 | 100 | 1011.4 |
| 20260506015446 | 53 | 338 | 1.7 | 2.6 | 0.00 | 0.00 | 0.00 | 100 | 1011.4 |
| 20260506015346 | 53 | 11 | 1.7 | 2.6 | 0.00 | 0.00 | 0.00 | 100 | 1011.4 |
| 20260506015246 | 53 | 9 | 2.6 | 2.6 | 0.00 | 0.00 | 0.00 | 100 | 1011.4 |
| 20260506015211 | 53 | 9 | 2.6 | 2.6 | 0.00 | 0.00 | 0.00 | 100 | 1011.4 |
| 20260506015145 | 53 | 355 | 2.6 | 2.6 | 0.00 | 0.00 | 0.00 | 100 | 1011.4 |
| 20260506015044 | 53 | 349 | 2.6 | 2.6 | 0.00 | 0.00 | 0.00 | 100 | 1011.4 |
| 20260506014944 | 53 | 349 | 0.9 | 1.7 | 0.00 | 0.00 | 0.00 | 100 | 1011.4 |
| 20260506014844 | 53 | 338 | 0.9 | 1.7 | 0.00 | 0.00 | 0.00 | 100 | 1011.4 |
| 20260506014744 | 53 | 342 | 1.7 | 4.3 | 0.00 | 0.00 | 0.00 | 100 | 1011.4 |
| 20260506014712 | 53 | 342 | 1.7 | 4.3 | 0.00 | 0.00 | 0.00 | 100 | 1011.4 |
| 20260506014646 | 53 | 337 | 2.6 | 4.3 | 0.00 | 0.00 | 0.00 | 100 | 1011.4 |
| 20260506014546 | 53 | 5 | 2.6 | 4.3 | 0.00 | 0.00 | 0.00 | 100 | 1011.4 |
| 20260506014446 | 53 | 350 | 2.6 | 4.3 | 0.00 | 0.00 | 0.00 | 100 | 1011.4 |
| 20260506014345 | 53 | 317 | 2.6 | 4.3 | 0.00 | 0.00 | 0.00 | 100 | 1011.4 |
| 20260506014245 | 53 | 348 | 1.7 | 4.3 | 0.00 | 0.00 | 0.00 | 100 | 1011.4 |
| 20260506014213 | 53 | 348 | 1.7 | 4.3 | 0.00 | 0.00 | 0.00 | 100 | 1011.4 |
| 20260506014144 | 53 | 328 | 2.6 | 4.3 | 0.00 | 0.00 | 0.00 | 100 | 1011.5 |
| 20260506014044 | 53 | 307 | 1.7 | 4.3 | 0.00 | 0.00 | 0.00 | 100 | 1011.4 |
| 20260506013944 | 53 | 339 | 4.3 | 4.3 | 0.00 | 0.00 | 0.00 | 100 | 1011.4 |
| 20260506013844 | 53 | 325 | 1.7 | 1.7 | 0.00 | 0.00 | 0.00 | 100 | 1011.4 |
| 20260506013745 | 53 | 346 | 1.7 | 4.3 | 0.00 | 0.00 | 0.00 | 100 | 1011.5 |
| 20260506013711 | 53 | 346 | 1.7 | 4.3 | 0.00 | 0.00 | 0.00 | 100 | 1011.5 |
| 20260506013645 | 53 | 355 | 1.7 | 3.5 | 0.00 | 0.00 | 0.00 | 100 | 1011.4 |
| 20260506013545 | 53 | 316 | 2.6 | 3.5 | 0.00 | 0.00 | 0.00 | 100 | 1011.4 |
| 20260506013445 | 53 | 360 | 2.6 | 3.5 | 0.00 | 0.00 | 0.00 | 100 | 1011.4 |
| 20260506013345 | 53 | 346 | 2.6 | 2.6 | 0.00 | 0.00 | 0.00 | 100 | 1011.4 |
| 20260506013244 | 53 | 355 | 2.6 | 4.3 | 0.00 | 0.00 | 0.00 | 100 | 1011.4 |
| 20260506013213 | 53 | 355 | 2.6 | 4.3 | 0.00 | 0.00 | 0.00 | 100 | 1011.4 |
| 20260506013145 | 53 | 355 | 0.9 | 4.3 | 0.00 | 0.00 | 0.00 | 100 | 1011.4 |
| 20260506013046 | 53 | 344 | 1.7 | 4.3 | 0.00 | 0.00 | 0.00 | 100 | 1011.5 |
| 20260506012946 | 53 | 355 | 2.6 | 4.3 | 0.00 | 0.00 | 0.00 | 100 | 1011.5 |
| 20260506012846 | 53 | 20 | 4.3 | 4.3 | 0.00 | 0.00 | 0.00 | 100 | 1011.5 |
| 20260506012745 | 53 | 21 | 6.1 | 6.1 | 0.00 | 0.00 | 0.00 | 100 | 1011.5 |
| 20260506012711 | 53 | 21 | 6.1 | 6.1 | 0.00 | 0.00 | 0.00 | 100 | 1011.5 |
| 20260506012644 | 53 | 355 | 1.7 | 2.6 | 0.00 | 0.00 | 0.00 | 100 | 1011.4 |
| 20260506012544 | 53 | 360 | 2.6 | 2.6 | 0.00 | 0.00 | 0.00 | 100 | 1011.5 |
| 20260506012444 | 53 | 5 | 1.7 | 2.6 | 0.00 | 0.00 | 0.00 | 100 | 1011.5 |
| 20260506012344 | 53 | 325 | 2.6 | 2.6 | 0.00 | 0.00 | 0.00 | 100 | 1011.5 |
| 20260506012244 | 53 | 355 | 1.7 | 3.5 | 0.00 | 0.00 | 0.00 | 100 | 1011.5 |
| 20260506012212 | 53 | 355 | 1.7 | 3.5 | 0.00 | 0.00 | 0.00 | 100 | 1011.5 |
| 20260506012146 | 53 | 339 | 2.6 | 3.5 | 0.00 | 0.00 | 0.00 | 100 | 1011.5 |
| 20260506012045 | 53 | 309 | 2.6 | 3.5 | 0.00 | 0.00 | 0.00 | 100 | 1011.5 |
| 20260506011945 | 53 | 360 | 2.6 | 3.5 | 0.00 | 0.00 | 0.00 | 100 | 1011.4 |
| 20260506011845 | 53 | 346 | 1.7 | 3.5 | 0.00 | 0.00 | 0.00 | 100 | 1011.4 |
| 20260506011745 | 53 | 17 | 3.5 | 4.3 | 0.00 | 0.00 | 0.00 | 100 | 1011.4 |
| 20260506011712 | 53 | 17 | 3.5 | 4.3 | 0.00 | 0.00 | 0.00 | 100 | 1011.4 |
| 20260506011645 | 53 | 339 | 3.5 | 4.3 | 0.00 | 0.00 | 0.00 | 100 | 1011.5 |
| 20260506011545 | 53 | 329 | 1.7 | 4.3 | 0.00 | 0.00 | 0.00 | 100 | 1011.4 |
| 20260506011444 | 53 | 305 | 2.6 | 4.3 | 0.00 | 0.00 | 0.00 | 100 | 1011.5 |
| 20260506011344 | 53 | 350 | 2.6 | 2.6 | 0.00 | 0.00 | 0.00 | 100 | 1011.5 |
| 20260506011244 | 53 | 340 | 1.7 | 3.5 | 0.00 | 0.00 | 0.00 | 100 | 1011.5 |
| 20260506011212 | 53 | 340 | 1.7 | 3.5 | 0.00 | 0.00 | 0.00 | 100 | 1011.5 |
| 20260506011144 | 53 | 347 | 2.6 | 2.6 | 0.00 | 0.00 | 0.00 | 100 | 1011.4 |
| 20260506011044 | 53 | 350 | 0.0 | 2.6 | 0.00 | 0.00 | 0.00 | 100 | 1011.5 |
| 20260506010944 | 53 | 344 | 2.6 | 2.6 | 0.00 | 0.00 | 0.00 | 100 | 1011.5 |
| 20260506010846 | 53 | 355 | 1.7 | 2.6 | 0.00 | 0.00 | 0.00 | 100 | 1011.5 |
| 20260506010746 | 53 | 12 | 2.6 | 4.3 | 0.00 | 0.00 | 0.00 | 100 | 1011.5 |
| 20260506010712 | 53 | 12 | 2.6 | 4.3 | 0.00 | 0.00 | 0.00 | 100 | 1011.5 |
| 20260506010645 | 53 | 338 | 0.9 | 4.3 | 0.00 | 0.00 | 0.00 | 100 | 1011.5 |
| 20260506010545 | 53 | 37 | 2.6 | 4.3 | 0.00 | 0.00 | 0.00 | 100 | 1011.5 |
| 20260506010444 | 53 | 33 | 0.9 | 3.5 | 0.00 | 0.00 | 0.00 | 100 | 1011.5 |
| 20260506010344 | 53 | 360 | 3.5 | 3.5 | 0.00 | 0.00 | 0.00 | 100 | 1011.5 |
| 20260506010244 | 53 | 350 | 1.7 | 3.5 | 0.00 | 0.00 | 0.00 | 100 | 1011.5 |
| 20260506010213 | 53 | 350 | 1.7 | 3.5 | 0.00 | 0.00 | 0.00 | 100 | 1011.5 |
| 20260506010144 | 53 | 348 | 2.6 | 3.5 | 0.00 | 0.00 | 0.00 | 100 | 1011.6 |
| 20260506010044 | 53 | 31 | 1.7 | 2.6 | 0.00 | 0.00 | 0.00 | 100 | 1011.6 |
| 20260506005946 | 53 | 19 | 1.7 | 2.6 | 0.00 | 0.00 | 0.00 | 100 | 1011.6 |
| 20260506005846 | 53 | 327 | 2.6 | 2.6 | 0.00 | 0.00 | 0.00 | 100 | 1011.6 |
| 20260506005746 | 53 | 49 | 3.5 | 5.2 | 0.00 | 0.00 | 0.00 | 100 | 1011.6 |
| 20260506005712 | 53 | 49 | 3.5 | 5.2 | 0.00 | 0.00 | 0.00 | 100 | 1011.6 |
| 20260506005645 | 53 | 319 | 4.3 | 5.2 | 0.00 | 0.00 | 0.00 | 100 | 1011.6 |
| 20260506005545 | 53 | 5 | 1.7 | 2.6 | 0.00 | 0.00 | 0.00 | 100 | 1011.6 |
| 20260506005445 | 53 | 340 | 0.9 | 2.6 | 0.00 | 0.00 | 0.00 | 100 | 1011.6 |
| 20260506005345 | 53 | 14 | 2.6 | 2.6 | 0.00 | 0.00 | 0.00 | 100 | 1011.6 |
| 20260506005245 | 53 | 355 | 1.7 | 4.3 | 0.00 | 0.00 | 0.00 | 100 | 1011.6 |
| 20260506005213 | 53 | 355 | 1.7 | 4.3 | 0.00 | 0.00 | 0.00 | 100 | 1011.6 |
| 20260506005144 | 53 | 5 | 1.7 | 4.3 | 0.00 | 0.00 | 0.00 | 100 | 1011.7 |
| 20260506005044 | 53 | 26 | 2.6 | 4.3 | 0.00 | 0.00 | 0.00 | 100 | 1011.7 |
| 20260506004945 | 53 | 31 | 1.7 | 2.6 | 0.00 | 0.00 | 0.00 | 100 | 1011.7 |
| 20260506004845 | 53 | 5 | 2.6 | 2.6 | 0.00 | 0.00 | 0.00 | 100 | 1011.7 |
| 20260506004745 | 53 | 346 | 1.7 | 5.2 | 0.00 | 0.00 | 0.00 | 100 | 1011.7 |
| 20260506004711 | 53 | 346 | 1.7 | 5.2 | 0.00 | 0.00 | 0.00 | 100 | 1011.7 |
| 20260506004645 | 53 | 25 | 1.7 | 5.2 | 0.00 | 0.00 | 0.00 | 100 | 1011.7 |
| 20260506004545 | 53 | 10 | 2.6 | 5.2 | 0.00 | 0.00 | 0.00 | 100 | 1011.7 |
| 20260506004445 | 53 | 344 | 2.6 | 5.2 | 0.00 | 0.00 | 0.00 | 100 | 1011.6 |
| 20260506004344 | 53 | 337 | 2.6 | 5.2 | 0.00 | 0.00 | 0.00 | 100 | 1011.7 |
| 20260506004244 | 53 | 5 | 2.6 | 7.8 | 0.00 | 0.00 | 0.00 | 100 | 1011.6 |
| 20260506004212 | 53 | 5 | 2.6 | 7.8 | 0.00 | 0.00 | 0.00 | 100 | 1011.6 |
| 20260506004146 | 53 | 355 | 7.8 | 7.8 | 0.00 | 0.00 | 0.00 | 100 | 1011.6 |
| 20260506004046 | 53 | 16 | 6.1 | 6.1 | 0.00 | 0.00 | 0.00 | 100 | 1011.7 |
| 20260506003946 | 53 | 355 | 6.1 | 6.1 | 0.00 | 0.00 | 0.00 | 100 | 1011.6 |
| 20260506003846 | 53 | 351 | 3.5 | 5.2 | 0.00 | 0.00 | 0.00 | 100 | 1011.6 |
| 20260506003746 | 53 | 20 | 5.2 | 6.1 | 0.00 | 0.00 | 0.00 | 100 | 1011.6 |
| 20260506003713 | 53 | 20 | 5.2 | 6.1 | 0.00 | 0.00 | 0.00 | 100 | 1011.6 |
| 20260506003645 | 53 | 350 | 1.7 | 6.1 | 0.00 | 0.00 | 0.00 | 100 | 1011.6 |
| 20260506003545 | 53 | 43 | 2.6 | 6.1 | 0.00 | 0.00 | 0.00 | 100 | 1011.7 |
| 20260506003445 | 53 | 21 | 3.5 | 6.1 | 0.00 | 0.00 | 0.00 | 100 | 1011.6 |
| 20260506003345 | 53 | 45 | 2.6 | 4.3 | 0.00 | 0.00 | 0.00 | 100 | 1011.7 |
| 20260506003244 | 53 | 15 | 3.5 | 6.1 | 0.00 | 0.00 | 0.00 | 100 | 1011.6 |
| 20260506003213 | 53 | 15 | 3.5 | 6.1 | 0.00 | 0.00 | 0.00 | 100 | 1011.6 |
| 20260506003145 | 53 | 360 | 0.9 | 6.1 | 0.00 | 0.00 | 0.00 | 100 | 1011.6 |
| 20260506003044 | 53 | 9 | 2.6 | 6.1 | 0.00 | 0.00 | 0.00 | 100 | 1011.6 |
| 20260506002944 | 53 | 21 | 6.1 | 6.1 | 0.00 | 0.00 | 0.00 | 100 | 1011.7 |
| 20260506002844 | 53 | 340 | 2.6 | 6.1 | 0.00 | 0.00 | 0.00 | 100 | 1011.7 |
| 20260506002746 | 53 | 332 | 2.6 | 7.0 | 0.00 | 0.00 | 0.00 | 100 | 1011.7 |
| 20260506002712 | 53 | 332 | 2.6 | 7.0 | 0.00 | 0.00 | 0.00 | 100 | 1011.7 |
| 20260506002646 | 54 | 333 | 2.6 | 7.0 | 0.00 | 0.00 | 0.00 | 100 | 1011.7 |
| 20260506002546 | 54 | 17 | 2.6 | 7.0 | 0.00 | 0.00 | 0.00 | 100 | 1011.7 |
| 20260506002446 | 54 | 29 | 2.6 | 7.0 | 0.00 | 0.00 | 0.00 | 100 | 1011.7 |
| 20260506002346 | 54 | 307 | 7.0 | 7.0 | 0.00 | 0.00 | 0.00 | 100 | 1011.7 |
| 20260506002246 | 54 | 355 | 4.3 | 7.8 | 0.00 | 0.00 | 0.00 | 100 | 1011.6 |
| 20260506002211 | 54 | 355 | 4.3 | 7.8 | 0.00 | 0.00 | 0.00 | 100 | 1011.6 |
| 20260506002145 | 54 | 19 | 3.5 | 6.1 | 0.00 | 0.00 | 0.00 | 100 | 1011.7 |
| 20260506002045 | 54 | 28 | 2.6 | 6.1 | 0.00 | 0.00 | 0.00 | 100 | 1011.7 |
| 20260506001945 | 54 | 17 | 3.5 | 6.1 | 0.00 | 0.00 | 0.00 | 100 | 1011.6 |
| 20260506001845 | 54 | 20 | 6.1 | 6.1 | 0.00 | 0.00 | 0.00 | 100 | 1011.7 |
| 20260506001745 | 54 | 5 | 3.5 | 7.8 | 0.00 | 0.00 | 0.00 | 100 | 1011.7 |
| 20260506001711 | 54 | 5 | 3.5 | 7.8 | 0.00 | 0.00 | 0.00 | 100 | 1011.7 |
| 20260506001645 | 54 | 36 | 2.6 | 7.8 | 0.00 | 0.00 | 0.00 | 100 | 1011.7 |
| 20260506001545 | 54 | 36 | 6.1 | 7.8 | 0.00 | 0.00 | 0.00 | 100 | 1011.7 |
| 20260506001445 | 54 | 355 | 2.6 | 5.2 | 0.00 | 0.00 | 0.00 | 100 | 1011.7 |
| 20260506001344 | 54 | 34 | 2.6 | 5.2 | 0.00 | 0.00 | 0.00 | 100 | 1011.7 |
| 20260506001245 | 54 | 339 | 1.7 | 8.7 | 0.00 | 0.00 | 0.00 | 100 | 1011.7 |
| 20260506001212 | 54 | 339 | 1.7 | 8.7 | 0.00 | 0.00 | 0.00 | 100 | 1011.7 |
| 20260506001144 | 54 | 349 | 3.5 | 8.7 | 0.00 | 0.00 | 0.00 | 100 | 1011.7 |
| 20260506001044 | 54 | 9 | 4.3 | 8.7 | 0.00 | 0.00 | 0.00 | 100 | 1011.6 |
| 20260506000945 | 54 | 13 | 2.6 | 8.7 | 0.00 | 0.00 | 0.00 | 100 | 1011.6 |
| 20260506000845 | 54 | 332 | 7.8 | 8.7 | 0.00 | 0.00 | 0.00 | 100 | 1011.7 |
| 20260506000745 | 54 | 306 | 2.6 | 5.2 | 0.00 | 0.00 | 0.00 | 100 | 1011.6 |
| 20260506000711 | 54 | 306 | 2.6 | 5.2 | 0.00 | 0.00 | 0.00 | 100 | 1011.6 |
| 20260506000645 | 54 | 77 | 1.7 | 5.2 | 0.00 | 0.00 | 0.00 | 100 | 1011.6 |
| 20260506000545 | 54 | 336 | 3.5 | 5.2 | 0.00 | 0.00 | 0.00 | 100 | 1011.7 |
| 20260506000445 | 54 | 350 | 2.6 | 5.2 | 0.00 | 0.00 | 0.00 | 100 | 1011.7 |
| 20260506000346 | 54 | 36 | 2.6 | 4.3 | 0.00 | 0.00 | 0.00 | 100 | 1011.7 |
| 20260506000247 | 54 | 23 | 3.5 | 4.3 | 0.00 | 0.00 | 0.00 | 100 | 1011.7 |
| 20260506000212 | 54 | 23 | 3.5 | 4.3 | 0.00 | 0.00 | 0.00 | 100 | 1011.7 |
| 20260506000145 | 54 | 355 | 3.5 | 3.5 | 0.00 | 0.00 | 0.00 | 100 | 1011.7 |
| 20260506000045 | 54 | 12 | 2.6 | 3.5 | 0.00 | 0.00 | 0.00 | 100 | 1011.7 |
| 20260505235945 | 54 | 338 | 1.7 | 2.6 | 0.00 | 0.00 | 0.00 | 100 | 1011.7 |
| 20260505235844 | 54 | 40 | 1.7 | 2.6 | 0.00 | 0.00 | 0.00 | 100 | 1011.7 |
| 20260505235744 | 54 | 27 | 2.6 | 6.1 | 0.00 | 0.00 | 0.00 | 100 | 1011.7 |
| 20260505235712 | 54 | 27 | 2.6 | 6.1 | 0.00 | 0.00 | 0.00 | 100 | 1011.7 |
| 20260505235644 | 54 | 27 | 2.6 | 6.1 | 0.00 | 0.00 | 0.00 | 100 | 1011.7 |
| 20260505235544 | 54 | 336 | 2.6 | 6.1 | 0.00 | 0.00 | 0.00 | 100 | 1011.7 |
| 20260505235444 | 54 | 9 | 1.7 | 2.6 | 0.00 | 0.00 | 0.00 | 100 | 1011.7 |
| 20260505235345 | 54 | 17 | 2.6 | 2.6 | 0.00 | 0.00 | 0.00 | 100 | 1011.6 |
| 20260505235245 | 54 | 28 | 2.6 | 6.1 | 0.00 | 0.00 | 0.00 | 100 | 1011.7 |
| 20260505235213 | 54 | 28 | 2.6 | 6.1 | 0.00 | 0.00 | 0.00 | 100 | 1011.7 |
| 20260505235145 | 54 | 24 | 2.6 | 6.1 | 0.00 | 0.00 | 0.00 | 100 | 1011.7 |
| 20260505235045 | 54 | 337 | 3.5 | 6.1 | 0.00 | 0.00 | 0.00 | 100 | 1011.7 |
| 20260505234946 | 54 | 36 | 4.3 | 6.1 | 0.00 | 0.00 | 0.00 | 100 | 1011.7 |
| 20260505234845 | 54 | 17 | 2.6 | 3.5 | 0.00 | 0.00 | 0.00 | 100 | 1011.7 |
| 20260505234745 | 54 | 18 | 0.9 | 6.1 | 0.00 | 0.00 | 0.00 | 100 | 1011.7 |
| 20260505234713 | 54 | 18 | 0.9 | 6.1 | 0.00 | 0.00 | 0.00 | 100 | 1011.7 |
| 20260505234644 | 54 | 346 | 2.6 | 6.1 | 0.00 | 0.00 | 0.00 | 100 | 1011.7 |
| 20260505234544 | 54 | 350 | 2.6 | 6.1 | 0.00 | 0.00 | 0.00 | 100 | 1011.7 |
| 20260505234444 | 54 | 13 | 2.6 | 6.1 | 0.00 | 0.00 | 0.00 | 100 | 1011.7 |
| 20260505234344 | 54 | 34 | 4.3 | 6.1 | 0.00 | 0.00 | 0.00 | 100 | 1011.7 |
| 20260505234244 | 54 | 34 | 2.6 | 5.2 | 0.00 | 0.00 | 0.00 | 100 | 1011.7 |
| 20260505234212 | 54 | 34 | 2.6 | 5.2 | 0.00 | 0.00 | 0.00 | 100 | 1011.7 |
| 20260505234144 | 54 | 34 | 2.6 | 5.2 | 0.00 | 0.00 | 0.00 | 100 | 1011.7 |
| 20260505234044 | 54 | 39 | 2.6 | 5.2 | 0.00 | 0.00 | 0.00 | 100 | 1011.7 |
| 20260505233944 | 54 | 13 | 2.6 | 5.2 | 0.00 | 0.00 | 0.00 | 100 | 1011.7 |
| 20260505233844 | 54 | 59 | 2.6 | 2.6 | 0.00 | 0.00 | 0.00 | 100 | 1011.7 |
| 20260505233744 | 54 | 46 | 2.6 | 7.0 | 0.00 | 0.00 | 0.00 | 100 | 1011.7 |
| 20260505233712 | 54 | 46 | 2.6 | 7.0 | 0.00 | 0.00 | 0.00 | 100 | 1011.7 |
| 20260505233644 | 54 | 344 | 3.5 | 7.0 | 0.00 | 0.00 | 0.00 | 100 | 1011.7 |
| 20260505233546 | 54 | 326 | 2.6 | 5.2 | 0.00 | 0.00 | 0.00 | 100 | 1011.7 |
| 20260505233446 | 54 | 26 | 2.6 | 5.2 | 0.00 | 0.00 | 0.00 | 100 | 1011.7 |
| 20260505233346 | 54 | 22 | 1.7 | 5.2 | 0.00 | 0.00 | 0.00 | 100 | 1011.6 |
| 20260505233246 | 54 | 36 | 7.0 | 9.6 | 0.00 | 0.00 | 0.00 | 100 | 1011.7 |
| 20260505233213 | 54 | 36 | 7.0 | 9.6 | 0.00 | 0.00 | 0.00 | 100 | 1011.7 |
| 20260505233144 | 54 | 11 | 2.6 | 9.6 | 0.00 | 0.00 | 0.00 | 100 | 1011.6 |
| 20260505233044 | 54 | 22 | 5.2 | 9.6 | 0.00 | 0.00 | 0.00 | 100 | 1011.6 |
| 20260505232944 | 54 | 5 | 2.6 | 7.0 | 0.00 | 0.00 | 0.00 | 100 | 1011.6 |
| 20260505232844 | 54 | 327 | 4.3 | 7.0 | 0.00 | 0.00 | 0.00 | 100 | 1011.6 |
| 20260505232744 | 54 | 16 | 6.1 | 7.8 | 0.00 | 0.00 | 0.00 | 100 | 1011.6 |
| 20260505232712 | 54 | 16 | 6.1 | 7.8 | 0.00 | 0.00 | 0.00 | 100 | 1011.6 |
| 20260505232644 | 54 | 15 | 5.2 | 7.8 | 0.00 | 0.00 | 0.00 | 100 | 1011.7 |
| 20260505232544 | 54 | 15 | 2.6 | 7.0 | 0.00 | 0.00 | 0.00 | 100 | 1011.6 |
| 20260505232444 | 54 | 9 | 7.0 | 7.0 | 0.00 | 0.00 | 0.00 | 100 | 1011.6 |
| 20260505232346 | 54 | 9 | 2.6 | 7.0 | 0.00 | 0.00 | 0.00 | 100 | 1011.6 |
| 20260505232246 | 54 | 333 | 7.8 | 7.8 | 0.00 | 0.00 | 0.00 | 100 | 1011.6 |
| 20260505232212 | 54 | 333 | 7.8 | 7.8 | 0.00 | 0.00 | 0.00 | 100 | 1011.6 |
| 20260505232146 | 54 | 25 | 1.7 | 3.5 | 0.00 | 0.00 | 0.00 | 100 | 1011.6 |
| 20260505232046 | 54 | 20 | 2.6 | 3.5 | 0.00 | 0.00 | 0.00 | 100 | 1011.6 |
| 20260505231944 | 54 | 16 | 2.6 | 3.5 | 0.00 | 0.00 | 0.00 | 100 | 1011.6 |
| 20260505231844 | 54 | 349 | 2.6 | 3.5 | 0.00 | 0.00 | 0.00 | 100 | 1011.6 |
| 20260505231744 | 54 | 342 | 3.5 | 6.1 | 0.00 | 0.00 | 0.00 | 100 | 1011.6 |
| 20260505231712 | 54 | 342 | 3.5 | 6.1 | 0.00 | 0.00 | 0.00 | 100 | 1011.6 |
| 20260505231646 | 54 | 36 | 4.3 | 6.1 | 0.00 | 0.00 | 0.00 | 100 | 1011.6 |
| 20260505231546 | 54 | 349 | 2.6 | 6.1 | 0.00 | 0.00 | 0.00 | 100 | 1011.6 |
| 20260505231446 | 54 | 28 | 2.6 | 6.1 | 0.00 | 0.00 | 0.00 | 100 | 1011.6 |
| 20260505231346 | 54 | 26 | 6.1 | 6.1 | 0.00 | 0.00 | 0.00 | 100 | 1011.6 |
| 20260505231245 | 54 | 350 | 3.5 | 6.1 | 0.00 | 0.00 | 0.00 | 100 | 1011.6 |
| 20260505231213 | 54 | 350 | 3.5 | 6.1 | 0.00 | 0.00 | 0.00 | 100 | 1011.6 |
| 20260505231145 | 54 | 355 | 2.6 | 6.1 | 0.00 | 0.00 | 0.00 | 100 | 1011.5 |
| 20260505231045 | 54 | 11 | 3.5 | 6.1 | 0.00 | 0.00 | 0.00 | 100 | 1011.6 |
| 20260505230945 | 54 | 348 | 4.3 | 5.2 | 0.00 | 0.00 | 0.00 | 100 | 1011.6 |
| 20260505230845 | 54 | 12 | 2.6 | 5.2 | 0.00 | 0.00 | 0.00 | 100 | 1011.5 |
| 20260505230744 | 54 | 35 | 2.6 | 8.7 | 0.00 | 0.00 | 0.00 | 100 | 1011.6 |
| 20260505230712 | 54 | 35 | 2.6 | 8.7 | 0.00 | 0.00 | 0.00 | 100 | 1011.6 |
| 20260505230644 | 54 | 338 | 7.0 | 7.0 | 0.00 | 0.00 | 0.00 | 100 | 1011.6 |
| 20260505230544 | 54 | 22 | 3.5 | 6.1 | 0.00 | 0.00 | 0.00 | 100 | 1011.6 |
| 20260505230444 | 54 | 13 | 2.6 | 5.2 | 0.00 | 0.00 | 0.00 | 100 | 1011.6 |
| 20260505230344 | 54 | 336 | 2.6 | 2.6 | 0.00 | 0.00 | 0.00 | 100 | 1011.6 |
| 20260505230245 | 54 | 25 | 1.7 | 7.0 | 0.00 | 0.00 | 0.00 | 100 | 1011.7 |
| 20260505230211 | 54 | 25 | 1.7 | 7.0 | 0.00 | 0.00 | 0.00 | 100 | 1011.7 |
| 20260505230145 | 54 | 13 | 4.3 | 7.0 | 0.00 | 0.00 | 0.00 | 100 | 1011.6 |
| 20260505230045 | 54 | 31 | 3.5 | 7.0 | 0.00 | 0.00 | 0.00 | 100 | 1011.6 |
| 20260505225945 | 54 | 63 | 6.1 | 7.0 | 0.00 | 0.00 | 0.00 | 100 | 1011.7 |
| 20260505225845 | 54 | 34 | 2.6 | 4.3 | 0.00 | 0.00 | 0.00 | 100 | 1011.7 |
| 20260505225744 | 54 | 20 | 2.6 | 6.1 | 0.00 | 0.00 | 0.00 | 100 | 1011.6 |
| 20260505225712 | 54 | 20 | 2.6 | 6.1 | 0.00 | 0.00 | 0.00 | 100 | 1011.6 |
| 20260505225644 | 54 | 360 | 2.6 | 6.1 | 0.00 | 0.00 | 0.00 | 100 | 1011.6 |
| 20260505225544 | 54 | 46 | 0.9 | 5.2 | 0.00 | 0.00 | 0.00 | 100 | 1011.6 |
| 20260505225444 | 54 | 17 | 1.7 | 5.2 | 0.00 | 0.00 | 0.00 | 100 | 1011.6 |
| 20260505225345 | 54 | 13 | 2.6 | 5.2 | 0.00 | 0.00 | 0.00 | 100 | 1011.6 |
| 20260505225245 | 54 | 26 | 0.0 | 4.3 | 0.00 | 0.00 | 0.00 | 100 | 1011.6 |
| 20260505225211 | 54 | 26 | 0.0 | 4.3 | 0.00 | 0.00 | 0.00 | 100 | 1011.6 |
| 20260505225145 | 54 | 11 | 1.7 | 4.3 | 0.00 | 0.00 | 0.00 | 100 | 1011.6 |
| 20260505225045 | 54 | 55 | 2.6 | 4.3 | 0.00 | 0.00 | 0.00 | 100 | 1011.7 |
| 20260505224945 | 54 | 360 | 2.6 | 4.3 | 0.00 | 0.00 | 0.00 | 100 | 1011.6 |
| 20260505224846 | 54 | 348 | 2.6 | 4.3 | 0.00 | 0.00 | 0.00 | 100 | 1011.6 |
| 20260505224746 | 53 | 342 | 2.6 | 4.3 | 0.00 | 0.00 | 0.00 | 100 | 1011.7 |
| 20260505224712 | 53 | 342 | 2.6 | 4.3 | 0.00 | 0.00 | 0.00 | 100 | 1011.7 |
| 20260505224645 | 53 | 360 | 2.6 | 4.3 | 0.00 | 0.00 | 0.00 | 100 | 1011.6 |
| 20260505224545 | 53 | 39 | 2.6 | 2.6 | 0.00 | 0.00 | 0.00 | 100 | 1011.7 |
| 20260505224445 | 53 | 9 | 0.9 | 2.6 | 0.00 | 0.00 | 0.00 | 100 | 1011.7 |
| 20260505224345 | 53 | 27 | 1.7 | 2.6 | 0.00 | 0.00 | 0.00 | 100 | 1011.7 |
| 20260505224245 | 53 | 15 | 0.9 | 2.6 | 0.00 | 0.00 | 0.00 | 100 | 1011.7 |
| 20260505224211 | 53 | 15 | 0.9 | 2.6 | 0.00 | 0.00 | 0.00 | 100 | 1011.7 |
| 20260505224145 | 53 | 355 | 0.9 | 2.6 | 0.00 | 0.00 | 0.00 | 100 | 1011.7 |
| 20260505224044 | 53 | 348 | 1.7 | 1.7 | 0.00 | 0.00 | 0.00 | 100 | 1011.7 |
| 20260505223944 | 53 | 58 | 0.9 | 1.7 | 0.00 | 0.00 | 0.00 | 100 | 1011.7 |
| 20260505223846 | 53 | 17 | 0.9 | 0.9 | 0.00 | 0.00 | 0.00 | 100 | 1011.6 |
| 20260505223746 | 53 | 17 | 0.0 | 1.7 | 0.00 | 0.00 | 0.00 | 100 | 1011.6 |
| 20260505223712 | 53 | 17 | 0.0 | 1.7 | 0.00 | 0.00 | 0.00 | 100 | 1011.6 |
| 20260505223646 | 53 | 17 | 1.7 | 1.7 | 0.00 | 0.00 | 0.00 | 100 | 1011.7 |
| 20260505223545 | 53 | 26 | 0.9 | 1.7 | 0.00 | 0.00 | 0.00 | 100 | 1011.6 |
| 20260505223445 | 53 | 342 | 0.0 | 1.7 | 0.00 | 0.00 | 0.00 | 100 | 1011.6 |
| 20260505223345 | 53 | 355 | 0.9 | 0.9 | 0.00 | 0.00 | 0.00 | 100 | 1011.7 |
| 20260505223245 | 53 | 344 | 0.9 | 3.5 | 0.00 | 0.00 | 0.00 | 100 | 1011.6 |
| 20260505223213 | 53 | 344 | 0.9 | 3.5 | 0.00 | 0.00 | 0.00 | 100 | 1011.6 |
| 20260505223144 | 53 | 24 | 0.9 | 3.5 | 0.00 | 0.00 | 0.00 | 100 | 1011.6 |
| 20260505223045 | 53 | 44 | 1.7 | 3.5 | 0.00 | 0.00 | 0.00 | 100 | 1011.6 |
| 20260505222945 | 53 | 59 | 2.6 | 3.5 | 0.00 | 0.00 | 0.00 | 100 | 1011.6 |
| 20260505222845 | 53 | 92 | 0.9 | 3.5 | 0.00 | 0.00 | 0.00 | 100 | 1011.6 |
| 20260505222745 | 53 | 63 | 0.9 | 4.3 | 0.00 | 0.00 | 0.00 | 100 | 1011.7 |
| 20260505222711 | 53 | 63 | 0.9 | 4.3 | 0.00 | 0.00 | 0.00 | 100 | 1011.7 |
| 20260505222645 | 53 | 59 | 1.7 | 2.6 | 0.00 | 0.00 | 0.00 | 100 | 1011.7 |
| 20260505222545 | 53 | 15 | 1.7 | 2.6 | 0.00 | 0.00 | 0.00 | 100 | 1011.7 |
| 20260505222446 | 53 | 355 | 0.0 | 1.7 | 0.00 | 0.00 | 0.00 | 100 | 1011.7 |
| 20260505222346 | 53 | 346 | 0.9 | 1.7 | 0.00 | 0.00 | 0.00 | 100 | 1011.7 |
| 20260505222246 | 53 | 355 | 1.7 | 2.6 | 0.00 | 0.00 | 0.00 | 100 | 1011.7 |
| 20260505222212 | 53 | 355 | 1.7 | 2.6 | 0.00 | 0.00 | 0.00 | 100 | 1011.7 |
| 20260505222146 | 53 | 58 | 0.9 | 2.6 | 0.00 | 0.00 | 0.00 | 100 | 1011.7 |
| 20260505222045 | 53 | 120 | 0.0 | 1.7 | 0.00 | 0.00 | 0.00 | 100 | 1011.7 |
| 20260505221945 | 53 | 67 | 0.0 | 1.7 | 0.00 | 0.00 | 0.00 | 100 | 1011.7 |
| 20260505221844 | 53 | 67 | 1.7 | 1.7 | 0.00 | 0.00 | 0.00 | 100 | 1011.7 |
| 20260505221745 | 53 | 355 | 0.9 | 2.6 | 0.00 | 0.00 | 0.00 | 100 | 1011.7 |
| 20260505221712 | 53 | 355 | 0.9 | 2.6 | 0.00 | 0.00 | 0.00 | 100 | 1011.7 |
| 20260505221644 | 53 | 59 | 1.7 | 2.6 | 0.00 | 0.00 | 0.00 | 100 | 1011.7 |
| 20260505221546 | 53 | 17 | 2.6 | 2.6 | 0.00 | 0.00 | 0.00 | 100 | 1011.7 |
| 20260505221445 | 53 | 49 | 1.7 | 1.7 | 0.00 | 0.00 | 0.00 | 100 | 1011.7 |
| 20260505221345 | 53 | 38 | 0.9 | 0.9 | 0.00 | 0.00 | 0.00 | 100 | 1011.7 |
| 20260505221244 | 53 | 49 | 0.0 | 0.9 | 0.00 | 0.00 | 0.00 | 100 | 1011.7 |
| 20260505221212 | 53 | 49 | 0.0 | 0.9 | 0.00 | 0.00 | 0.00 | 100 | 1011.7 |
| 20260505221144 | 53 | 49 | 0.0 | 0.9 | 0.00 | 0.00 | 0.00 | 100 | 1011.7 |
| 20260505221044 | 53 | 71 | 0.0 | 0.9 | 0.00 | 0.00 | 0.00 | 100 | 1011.6 |
| 20260505220944 | 53 | 71 | 0.0 | 0.9 | 0.00 | 0.00 | 0.00 | 100 | 1011.7 |
| 20260505220844 | 53 | 73 | 0.9 | 0.9 | 0.00 | 0.00 | 0.00 | 100 | 1011.6 |
| 20260505220744 | 53 | 61 | 0.9 | 2.6 | 0.00 | 0.00 | 0.00 | 100 | 1011.7 |
| 20260505220712 | 53 | 61 | 0.9 | 2.6 | 0.00 | 0.00 | 0.00 | 100 | 1011.7 |
| 20260505220644 | 53 | 349 | 2.6 | 2.6 | 0.00 | 0.00 | 0.00 | 100 | 1011.6 |
| 20260505220546 | 53 | 40 | 0.9 | 2.6 | 0.00 | 0.00 | 0.00 | 100 | 1011.6 |
| 20260505220445 | 53 | 24 | 1.7 | 1.7 | 0.00 | 0.00 | 0.00 | 100 | 1011.6 |
| 20260505220345 | 53 | 40 | 0.9 | 0.9 | 0.00 | 0.00 | 0.00 | 100 | 1011.6 |
| 20260505220245 | 53 | 45 | 0.9 | 2.6 | 0.00 | 0.00 | 0.00 | 100 | 1011.6 |
| 20260505220213 | 53 | 45 | 0.9 | 2.6 | 0.00 | 0.00 | 0.00 | 100 | 1011.6 |
| 20260505220145 | 53 | 14 | 2.6 | 2.6 | 0.00 | 0.00 | 0.00 | 100 | 1011.6 |
| 20260505220045 | 53 | 27 | 2.6 | 2.6 | 0.00 | 0.00 | 0.00 | 100 | 1011.6 |
| 20260505215944 | 53 | 28 | 2.6 | 2.6 | 0.00 | 0.00 | 0.00 | 100 | 1011.6 |
| 20260505215844 | 53 | 28 | 0.9 | 2.6 | 0.00 | 0.00 | 0.00 | 100 | 1011.6 |
| 20260505215745 | 53 | 30 | 0.9 | 4.3 | 0.00 | 0.00 | 0.00 | 100 | 1011.6 |
| 20260505215712 | 53 | 30 | 0.9 | 4.3 | 0.00 | 0.00 | 0.00 | 100 | 1011.6 |
| 20260505215645 | 53 | 15 | 1.7 | 4.3 | 0.00 | 0.00 | 0.00 | 100 | 1011.5 |
| 20260505215545 | 53 | 80 | 2.6 | 4.3 | 0.00 | 0.00 | 0.00 | 100 | 1011.5 |
| 20260505215445 | 53 | 32 | 0.9 | 2.6 | 0.00 | 0.00 | 0.00 | 100 | 1011.5 |
| 20260505215345 | 53 | 53 | 0.0 | 2.6 | 0.00 | 0.00 | 0.00 | 100 | 1011.5 |
| 20260505215245 | 53 | 42 | 1.7 | 5.2 | 0.00 | 0.00 | 0.00 | 100 | 1011.5 |
| 20260505215211 | 53 | 42 | 1.7 | 5.2 | 0.00 | 0.00 | 0.00 | 100 | 1011.5 |
| 20260505215145 | 53 | 13 | 0.9 | 5.2 | 0.00 | 0.00 | 0.00 | 100 | 1011.5 |
| 20260505215045 | 53 | 24 | 1.7 | 5.2 | 0.00 | 0.00 | 0.00 | 100 | 1011.5 |
| 20260505214945 | 53 | 17 | 3.5 | 4.3 | 0.00 | 0.00 | 0.00 | 100 | 1011.5 |
| 20260505214845 | 53 | 46 | 3.5 | 4.3 | 0.00 | 0.00 | 0.00 | 100 | 1011.5 |
| 20260505214745 | 53 | 54 | 1.7 | 8.7 | 0.00 | 0.00 | 0.00 | 100 | 1011.5 |
| 20260505214713 | 53 | 54 | 1.7 | 8.7 | 0.00 | 0.00 | 0.00 | 100 | 1011.5 |
| 20260505214645 | 53 | 35 | 4.3 | 8.7 | 0.00 | 0.00 | 0.00 | 100 | 1011.5 |
| 20260505214545 | 53 | 38 | 6.1 | 8.7 | 0.00 | 0.00 | 0.00 | 100 | 1011.6 |
| 20260505214446 | 53 | 88 | 2.6 | 8.7 | 0.00 | 0.00 | 0.00 | 100 | 1011.5 |
| 20260505214346 | 53 | 11 | 2.6 | 8.7 | 0.00 | 0.00 | 0.00 | 100 | 1011.6 |
| 20260505214245 | 53 | 24 | 1.7 | 3.5 | 0.00 | 0.00 | 0.00 | 100 | 1011.5 |
| 20260505214211 | 53 | 24 | 1.7 | 3.5 | 0.00 | 0.00 | 0.00 | 100 | 1011.5 |
| 20260505214145 | 53 | 360 | 2.6 | 3.5 | 0.00 | 0.00 | 0.00 | 100 | 1011.5 |
| 20260505214044 | 53 | 38 | 1.7 | 2.6 | 0.00 | 0.00 | 0.00 | 100 | 1011.5 |
| 20260505213944 | 53 | 40 | 1.7 | 2.6 | 0.00 | 0.00 | 0.00 | 100 | 1011.6 |
| 20260505213844 | 53 | 57 | 1.7 | 2.6 | 0.00 | 0.00 | 0.00 | 100 | 1011.5 |
| 20260505213744 | 53 | 19 | 1.7 | 4.3 | 0.00 | 0.00 | 0.00 | 100 | 1011.5 |
| 20260505213712 | 53 | 19 | 1.7 | 4.3 | 0.00 | 0.00 | 0.00 | 100 | 1011.5 |
| 20260505213644 | 53 | 24 | 2.6 | 4.3 | 0.00 | 0.00 | 0.00 | 100 | 1011.5 |
| 20260505213544 | 53 | 9 | 1.7 | 4.3 | 0.00 | 0.00 | 0.00 | 100 | 1011.6 |
| 20260505213444 | 53 | 9 | 0.9 | 4.3 | 0.00 | 0.00 | 0.00 | 100 | 1011.6 |
| 20260505213344 | 53 | 19 | 2.6 | 4.3 | 0.00 | 0.00 | 0.00 | 100 | 1011.5 |
| 20260505213246 | 53 | 34 | 4.3 | 4.3 | 0.00 | 0.00 | 0.00 | 100 | 1011.5 |
| 20260505213212 | 53 | 34 | 4.3 | 4.3 | 0.00 | 0.00 | 0.00 | 100 | 1011.5 |
| 20260505213145 | 53 | 25 | 1.7 | 4.3 | 0.00 | 0.00 | 0.00 | 100 | 1011.5 |
| 20260505213044 | 53 | 15 | 1.7 | 4.3 | 0.00 | 0.00 | 0.00 | 100 | 1011.6 |
| 20260505212944 | 53 | 5 | 1.7 | 4.3 | 0.00 | 0.00 | 0.00 | 100 | 1011.6 |
| 20260505212844 | 53 | 15 | 1.7 | 4.3 | 0.00 | 0.00 | 0.00 | 100 | 1011.6 |
| 20260505212744 | 53 | 34 | 1.7 | 4.3 | 0.00 | 0.00 | 0.00 | 100 | 1011.6 |
| 20260505212712 | 53 | 34 | 1.7 | 4.3 | 0.00 | 0.00 | 0.00 | 100 | 1011.6 |
| 20260505212645 | 53 | 47 | 3.5 | 4.3 | 0.00 | 0.00 | 0.00 | 100 | 1011.6 |
| 20260505212545 | 53 | 61 | 2.6 | 4.3 | 0.00 | 0.00 | 0.00 | 100 | 1011.6 |
| 20260505212445 | 53 | 18 | 1.7 | 4.3 | 0.00 | 0.00 | 0.00 | 100 | 1011.6 |
| 20260505212345 | 53 | 28 | 4.3 | 4.3 | 0.00 | 0.00 | 0.00 | 100 | 1011.6 |
| 20260505212245 | 53 | 13 | 1.7 | 6.1 | 0.00 | 0.00 | 0.00 | 100 | 1011.6 |
| 20260505212211 | 53 | 13 | 1.7 | 6.1 | 0.00 | 0.00 | 0.00 | 100 | 1011.6 |
| 20260505212145 | 53 | 24 | 0.9 | 6.1 | 0.00 | 0.00 | 0.00 | 100 | 1011.6 |
| 20260505212045 | 53 | 346 | 1.7 | 6.1 | 0.00 | 0.00 | 0.00 | 100 | 1011.6 |
| 20260505211946 | 53 | 40 | 2.6 | 6.1 | 0.00 | 0.00 | 0.00 | 100 | 1011.6 |
| 20260505211846 | 53 | 360 | 2.6 | 6.1 | 0.00 | 0.00 | 0.00 | 100 | 1011.6 |
| 20260505211746 | 53 | 342 | 1.7 | 3.5 | 0.00 | 0.00 | 0.00 | 100 | 1011.6 |
| 20260505211713 | 53 | 342 | 1.7 | 3.5 | 0.00 | 0.00 | 0.00 | 100 | 1011.6 |
| 20260505211644 | 53 | 53 | 2.6 | 3.5 | 0.00 | 0.00 | 0.00 | 100 | 1011.6 |
| 20260505211544 | 53 | 36 | 1.7 | 3.5 | 0.00 | 0.00 | 0.00 | 100 | 1011.6 |
| 20260505211444 | 53 | 28 | 0.9 | 3.5 | 0.00 | 0.00 | 0.00 | 100 | 1011.6 |
| 20260505211344 | 53 | 58 | 2.6 | 3.5 | 0.00 | 0.00 | 0.00 | 100 | 1011.6 |
| 20260505211244 | 53 | 355 | 2.6 | 5.2 | 0.00 | 0.00 | 0.00 | 100 | 1011.6 |
| 20260505211212 | 53 | 355 | 2.6 | 5.2 | 0.00 | 0.00 | 0.00 | 100 | 1011.6 |
| 20260505211144 | 53 | 19 | 2.6 | 5.2 | 0.00 | 0.00 | 0.00 | 100 | 1011.6 |
| 20260505211044 | 53 | 45 | 1.7 | 3.5 | 0.00 | 0.00 | 0.00 | 100 | 1011.6 |
| 20260505210946 | 53 | 17 | 1.7 | 3.5 | 0.00 | 0.00 | 0.00 | 100 | 1011.6 |
| 20260505210846 | 53 | 360 | 2.6 | 3.5 | 0.00 | 0.00 | 0.00 | 100 | 1011.6 |
| 20260505210746 | 53 | 360 | 1.7 | 3.5 | 0.00 | 0.00 | 0.00 | 100 | 1011.6 |
| 20260505210713 | 53 | 360 | 1.7 | 3.5 | 0.00 | 0.00 | 0.00 | 100 | 1011.6 |
| 20260505210645 | 53 | 34 | 0.9 | 1.7 | 0.00 | 0.00 | 0.00 | 100 | 1011.6 |
| 20260505210545 | 53 | 9 | 0.0 | 1.7 | 0.00 | 0.00 | 0.00 | 100 | 1011.6 |
| 20260505210445 | 53 | 9 | 0.0 | 1.7 | 0.00 | 0.00 | 0.00 | 100 | 1011.6 |
| 20260505210345 | 53 | 13 | 1.7 | 1.7 | 0.00 | 0.00 | 0.00 | 100 | 1011.6 |
| 20260505210245 | 53 | 11 | 1.7 | 3.5 | 0.00 | 0.00 | 0.00 | 100 | 1011.6 |
| 20260505210211 | 53 | 11 | 1.7 | 3.5 | 0.00 | 0.00 | 0.00 | 100 | 1011.6 |
| 20260505210145 | 53 | 42 | 0.0 | 3.5 | 0.00 | 0.00 | 0.00 | 100 | 1011.6 |
| 20260505210045 | 53 | 28 | 2.6 | 3.5 | 0.00 | 0.00 | 0.00 | 100 | 1011.6 |
| 20260505205945 | 53 | 38 | 2.6 | 3.5 | 0.00 | 0.00 | 0.00 | 100 | 1011.6 |
| 20260505205845 | 53 | 37 | 2.6 | 2.6 | 0.00 | 0.00 | 0.00 | 100 | 1011.6 |
| 20260505205746 | 53 | 23 | 2.6 | 2.6 | 0.00 | 0.00 | 0.00 | 100 | 1011.6 |
| 20260505205713 | 53 | 23 | 2.6 | 2.6 | 0.00 | 0.00 | 0.00 | 100 | 1011.6 |
| 20260505205646 | 53 | 71 | 1.7 | 2.6 | 0.00 | 0.00 | 0.00 | 100 | 1011.6 |
| 20260505205546 | 53 | 47 | 1.7 | 2.6 | 0.00 | 0.00 | 0.00 | 100 | 1011.6 |
| 20260505205445 | 53 | 29 | 1.7 | 1.7 | 0.00 | 0.00 | 0.00 | 100 | 1011.6 |
| 20260505205345 | 53 | 19 | 0.9 | 0.9 | 0.00 | 0.00 | 0.00 | 100 | 1011.6 |
| 20260505205245 | 53 | 5 | 1.7 | 2.6 | 0.00 | 0.00 | 0.00 | 100 | 1011.6 |
| 20260505205211 | 53 | 5 | 1.7 | 2.6 | 0.00 | 0.00 | 0.00 | 100 | 1011.6 |
| 20260505205145 | 53 | 5 | 1.7 | 2.6 | 0.00 | 0.00 | 0.00 | 100 | 1011.6 |
| 20260505205045 | 53 | 20 | 0.9 | 2.6 | 0.00 | 0.00 | 0.00 | 100 | 1011.6 |
| 20260505204944 | 53 | 350 | 1.7 | 2.6 | 0.00 | 0.00 | 0.00 | 100 | 1011.6 |
| 20260505204844 | 53 | 9 | 2.6 | 2.6 | 0.00 | 0.00 | 0.00 | 100 | 1011.6 |
| 20260505204746 | 53 | 5 | 1.7 | 2.6 | 0.00 | 0.00 | 0.00 | 100 | 1011.6 |
| 20260505204712 | 53 | 5 | 1.7 | 2.6 | 0.00 | 0.00 | 0.00 | 100 | 1011.6 |
| 20260505204645 | 53 | 27 | 0.9 | 2.6 | 0.00 | 0.00 | 0.00 | 100 | 1011.6 |
| 20260505204545 | 53 | 340 | 2.6 | 2.6 | 0.00 | 0.00 | 0.00 | 100 | 1011.6 |
| 20260505204444 | 53 | 43 | 1.7 | 2.6 | 0.00 | 0.00 | 0.00 | 100 | 1011.5 |
| 20260505204344 | 53 | 5 | 1.7 | 2.6 | 0.00 | 0.00 | 0.00 | 100 | 1011.6 |
| 20260505204246 | 53 | 13 | 1.7 | 3.5 | 0.00 | 0.00 | 0.00 | 100 | 1011.6 |
| 20260505204212 | 53 | 13 | 1.7 | 3.5 | 0.00 | 0.00 | 0.00 | 100 | 1011.6 |
| 20260505204146 | 53 | 5 | 0.9 | 3.5 | 0.00 | 0.00 | 0.00 | 100 | 1011.6 |
| 20260505204046 | 53 | 5 | 1.7 | 3.5 | 0.00 | 0.00 | 0.00 | 100 | 1011.6 |
| 20260505203946 | 53 | 13 | 0.9 | 3.5 | 0.00 | 0.00 | 0.00 | 100 | 1011.5 |
| 20260505203846 | 53 | 42 | 2.6 | 3.5 | 0.00 | 0.00 | 0.00 | 100 | 1011.5 |
| 20260505203745 | 53 | 54 | 2.6 | 4.3 | 0.00 | 0.00 | 0.00 | 100 | 1011.5 |
| 20260505203711 | 53 | 54 | 2.6 | 4.3 | 0.00 | 0.00 | 0.00 | 100 | 1011.5 |
| 20260505203645 | 53 | 40 | 2.6 | 4.3 | 0.00 | 0.00 | 0.00 | 100 | 1011.5 |
| 20260505203544 | 53 | 32 | 4.3 | 4.3 | 0.00 | 0.00 | 0.00 | 100 | 1011.5 |
| 20260505203444 | 53 | 34 | 2.6 | 2.6 | 0.00 | 0.00 | 0.00 | 100 | 1011.5 |
| 20260505203344 | 53 | 50 | 1.7 | 2.6 | 0.00 | 0.00 | 0.00 | 100 | 1011.5 |
| 20260505203244 | 53 | 355 | 2.6 | 6.1 | 0.00 | 0.00 | 0.00 | 100 | 1011.5 |
| 20260505203212 | 53 | 355 | 2.6 | 6.1 | 0.00 | 0.00 | 0.00 | 100 | 1011.5 |
| 20260505203146 | 53 | 32 | 1.7 | 6.1 | 0.00 | 0.00 | 0.00 | 100 | 1011.5 |
| 20260505203046 | 53 | 28 | 0.9 | 6.1 | 0.00 | 0.00 | 0.00 | 100 | 1011.4 |
| 20260505202946 | 54 | 80 | 5.2 | 6.1 | 0.00 | 0.00 | 0.00 | 100 | 1011.5 |
| 20260505202846 | 54 | 45 | 1.7 | 1.7 | 0.00 | 0.00 | 0.00 | 100 | 1011.4 |
| 20260505202745 | 54 | 17 | 0.9 | 4.3 | 0.00 | 0.00 | 0.00 | 100 | 1011.5 |
| 20260505202712 | 54 | 17 | 0.9 | 4.3 | 0.00 | 0.00 | 0.00 | 100 | 1011.5 |
| 20260505202644 | 54 | 29 | 0.9 | 3.5 | 0.00 | 0.00 | 0.00 | 100 | 1011.4 |
| 20260505202545 | 54 | 53 | 2.6 | 3.5 | 0.00 | 0.00 | 0.00 | 100 | 1011.4 |
| 20260505202445 | 54 | 28 | 2.6 | 3.5 | 0.00 | 0.00 | 0.00 | 100 | 1011.5 |
| 20260505202345 | 54 | 355 | 1.7 | 2.6 | 0.00 | 0.00 | 0.00 | 100 | 1011.5 |
| 20260505202246 | 54 | 360 | 2.6 | 4.3 | 0.00 | 0.00 | 0.00 | 100 | 1011.5 |
| 20260505202212 | 54 | 360 | 2.6 | 4.3 | 0.00 | 0.00 | 0.00 | 100 | 1011.5 |
| 20260505202146 | 54 | 26 | 0.9 | 4.3 | 0.00 | 0.00 | 0.00 | 100 | 1011.4 |
| 20260505202046 | 54 | 17 | 1.7 | 4.3 | 0.00 | 0.00 | 0.00 | 100 | 1011.5 |
| 20260505201946 | 54 | 34 | 1.7 | 4.3 | 0.00 | 0.00 | 0.00 | 100 | 1011.5 |
| 20260505201844 | 54 | 13 | 1.7 | 3.5 | 0.00 | 0.00 | 0.00 | 100 | 1011.4 |
| 20260505201744 | 54 | 341 | 2.6 | 2.6 | 0.00 | 0.00 | 0.00 | 100 | 1011.4 |
| 20260505201712 | 54 | 341 | 2.6 | 2.6 | 0.00 | 0.00 | 0.00 | 100 | 1011.4 |
| 20260505201646 | 54 | 340 | 1.7 | 2.6 | 0.00 | 0.00 | 0.00 | 100 | 1011.4 |
| 20260505201546 | 54 | 5 | 1.7 | 2.6 | 0.00 | 0.00 | 0.00 | 100 | 1011.4 |
| 20260505201444 | 54 | 355 | 2.6 | 2.6 | 0.00 | 0.00 | 0.00 | 100 | 1011.4 |
| 20260505201344 | 54 | 13 | 0.0 | 1.7 | 0.00 | 0.00 | 0.00 | 100 | 1011.4 |
| 20260505201245 | 54 | 45 | 1.7 | 2.6 | 0.00 | 0.00 | 0.00 | 100 | 1011.4 |
| 20260505201211 | 54 | 45 | 1.7 | 2.6 | 0.00 | 0.00 | 0.00 | 100 | 1011.4 |
| 20260505201145 | 54 | 48 | 1.7 | 2.6 | 0.00 | 0.00 | 0.00 | 100 | 1011.3 |
| 20260505201045 | 54 | 61 | 2.6 | 2.6 | 0.00 | 0.00 | 0.00 | 100 | 1011.3 |
| 20260505200944 | 54 | 314 | 2.6 | 2.6 | 0.00 | 0.00 | 0.00 | 100 | 1011.3 |
| 20260505200844 | 54 | 13 | 2.6 | 2.6 | 0.00 | 0.00 | 0.00 | 100 | 1011.3 |
| 20260505200744 | 54 | 13 | 2.6 | 2.6 | 0.00 | 0.00 | 0.00 | 100 | 1011.3 |
| 20260505200712 | 54 | 13 | 2.6 | 2.6 | 0.00 | 0.00 | 0.00 | 100 | 1011.3 |
| 20260505200644 | 54 | 360 | 1.7 | 2.6 | 0.00 | 0.00 | 0.00 | 100 | 1011.3 |
| 20260505200545 | 54 | 5 | 0.9 | 2.6 | 0.00 | 0.00 | 0.00 | 100 | 1011.3 |
| 20260505200445 | 54 | 5 | 2.6 | 2.6 | 0.00 | 0.00 | 0.00 | 100 | 1011.3 |
| 20260505200345 | 55 | 348 | 1.7 | 1.7 | 0.00 | 0.00 | 0.00 | 100 | 1011.2 |
| 20260505200245 | 55 | 351 | 1.7 | 2.6 | 0.00 | 0.00 | 0.00 | 100 | 1011.2 |
| 20260505200213 | 55 | 351 | 1.7 | 2.6 | 0.00 | 0.00 | 0.00 | 100 | 1011.2 |
| 20260505200144 | 55 | 10 | 1.7 | 2.6 | 0.00 | 0.00 | 0.00 | 100 | 1011.2 |
| 20260505200044 | 55 | 355 | 1.7 | 2.6 | 0.00 | 0.00 | 0.00 | 100 | 1011.2 |
| 20260505195944 | 55 | 355 | 2.6 | 2.6 | 0.00 | 0.00 | 0.00 | 100 | 1011.2 |
| 20260505195844 | 55 | 9 | 2.6 | 2.6 | 0.00 | 0.00 | 0.00 | 100 | 1011.2 |
| 20260505195744 | 55 | 11 | 2.6 | 5.2 | 0.00 | 0.00 | 0.00 | 100 | 1011.2 |
| 20260505195712 | 55 | 11 | 2.6 | 5.2 | 0.00 | 0.00 | 0.00 | 100 | 1011.2 |
| 20260505195645 | 55 | 46 | 2.6 | 3.5 | 0.00 | 0.00 | 0.00 | 100 | 1011.2 |
| 20260505195545 | 55 | 5 | 0.9 | 2.6 | 0.00 | 0.00 | 0.00 | 100 | 1011.2 |
| 20260505195445 | 55 | 44 | 1.7 | 2.6 | 0.00 | 0.00 | 0.00 | 100 | 1011.2 |
| 20260505195345 | 55 | 43 | 0.9 | 2.6 | 0.00 | 0.00 | 0.00 | 100 | 1011.1 |
| 20260505195245 | 55 | 360 | 1.7 | 5.2 | 0.00 | 0.00 | 0.00 | 100 | 1011.1 |
| 20260505195211 | 55 | 360 | 1.7 | 5.2 | 0.00 | 0.00 | 0.00 | 100 | 1011.1 |
| 20260505195144 | 55 | 13 | 0.9 | 5.2 | 0.00 | 0.00 | 0.00 | 100 | 1011.1 |
| 20260505195044 | 55 | 355 | 0.9 | 5.2 | 0.00 | 0.00 | 0.00 | 100 | 1011.1 |
| 20260505194944 | 55 | 18 | 2.6 | 5.2 | 0.00 | 0.00 | 0.00 | 100 | 1011.1 |
| 20260505194844 | 55 | 13 | 1.7 | 5.2 | 0.00 | 0.00 | 0.00 | 100 | 1011.1 |
| 20260505194744 | 55 | 34 | 1.7 | 3.5 | 0.00 | 0.00 | 0.00 | 100 | 1011.1 |
| 20260505194712 | 55 | 34 | 1.7 | 3.5 | 0.00 | 0.00 | 0.00 | 100 | 1011.1 |
| 20260505194645 | 55 | 5 | 2.6 | 3.5 | 0.00 | 0.00 | 0.00 | 100 | 1011.1 |
| 20260505194545 | 55 | 5 | 2.6 | 3.5 | 0.00 | 0.00 | 0.00 | 100 | 1011.0 |
| 20260505194445 | 55 | 19 | 1.7 | 3.5 | 0.00 | 0.00 | 0.00 | 100 | 1011.0 |
| 20260505194345 | 55 | 5 | 0.9 | 2.6 | 0.00 | 0.00 | 0.00 | 100 | 1011.0 |
| 20260505194245 | 55 | 15 | 1.7 | 2.6 | 0.00 | 0.00 | 0.00 | 100 | 1011.0 |
| 20260505194211 | 55 | 15 | 1.7 | 2.6 | 0.00 | 0.00 | 0.00 | 100 | 1011.0 |
| 20260505194145 | 55 | 17 | 1.7 | 2.6 | 0.00 | 0.00 | 0.00 | 100 | 1011.0 |
| 20260505194045 | 55 | 10 | 0.9 | 2.6 | 0.00 | 0.00 | 0.00 | 100 | 1011.0 |
| 20260505193945 | 55 | 43 | 2.6 | 2.6 | 0.00 | 0.00 | 0.00 | 100 | 1011.0 |
| 20260505193845 | 55 | 34 | 1.7 | 2.6 | 0.00 | 0.00 | 0.00 | 100 | 1011.0 |
| 20260505193745 | 55 | 46 | 2.6 | 3.5 | 0.00 | 0.00 | 0.00 | 100 | 1011.0 |
| 20260505193712 | 55 | 46 | 2.6 | 3.5 | 0.00 | 0.00 | 0.00 | 100 | 1011.0 |
| 20260505193644 | 55 | 49 | 2.6 | 3.5 | 0.00 | 0.00 | 0.00 | 100 | 1011.0 |
| 20260505193544 | 55 | 19 | 0.9 | 3.5 | 0.00 | 0.00 | 0.00 | 2 | 1011.0 |
| 20260505193444 | 56 | 10 | 0.9 | 3.5 | 0.00 | 0.00 | 0.00 | 2 | 1011.0 |
| 20260505193344 | 56 | 30 | 1.7 | 3.5 | 0.00 | 0.00 | 0.00 | 3 | 1011.0 |
| 20260505193244 | 56 | 5 | 0.9 | 2.6 | 0.00 | 0.00 | 0.00 | 4 | 1011.0 |
| 20260505193212 | 56 | 5 | 0.9 | 2.6 | 0.00 | 0.00 | 0.00 | 4 | 1011.0 |
| 20260505193145 | 56 | 23 | 0.9 | 2.6 | 0.00 | 0.00 | 0.00 | 5 | 1010.9 |
| 20260505193045 | 56 | 20 | 2.6 | 2.6 | 0.00 | 0.00 | 0.00 | 6 | 1011.0 |
| 20260505192945 | 56 | 5 | 0.9 | 2.6 | 0.00 | 0.00 | 0.00 | 8 | 1010.9 |
| 20260505192845 | 56 | 351 | 2.6 | 2.6 | 0.00 | 0.00 | 0.00 | 8 | 1010.9 |
| 20260505192745 | 56 | 14 | 1.7 | 2.6 | 0.00 | 0.00 | 0.00 | 9 | 1010.9 |
| 20260505192711 | 56 | 14 | 1.7 | 2.6 | 0.00 | 0.00 | 0.00 | 9 | 1010.9 |
| 20260505192645 | 56 | 31 | 2.6 | 2.6 | 0.00 | 0.00 | 0.00 | 10 | 1010.9 |
| 20260505192545 | 56 | 28 | 0.9 | 1.7 | 0.00 | 0.00 | 0.00 | 11 | 1010.9 |
| 20260505192445 | 56 | 28 | 0.9 | 1.7 | 0.00 | 0.00 | 0.00 | 11 | 1010.9 |
| 20260505192345 | 56 | 44 | 0.9 | 1.7 | 0.00 | 0.00 | 0.00 | 12 | 1010.9 |
| 20260505192244 | 56 | 44 | 0.9 | 2.6 | 0.00 | 0.00 | 0.00 | 13 | 1010.9 |
| 20260505192212 | 56 | 44 | 0.9 | 2.6 | 0.00 | 0.00 | 0.00 | 13 | 1010.9 |
| 20260505192146 | 56 | 22 | 0.9 | 2.6 | 0.00 | 0.00 | 0.00 | 14 | 1010.9 |
| 20260505192045 | 56 | 41 | 1.7 | 2.6 | 0.00 | 0.00 | 0.00 | 15 | 1010.9 |
| 20260505191945 | 56 | 44 | 1.7 | 1.7 | 0.00 | 0.00 | 0.00 | 16 | 1010.9 |
| 20260505191845 | 56 | 17 | 0.9 | 1.7 | 0.00 | 0.00 | 0.00 | 16 | 1010.9 |
| 20260505191744 | 56 | 23 | 2.6 | 3.5 | 0.00 | 0.00 | 0.00 | 18 | 1010.8 |
| 20260505191712 | 56 | 23 | 2.6 | 3.5 | 0.00 | 0.00 | 0.00 | 18 | 1010.8 |
| 20260505191646 | 56 | 49 | 1.7 | 3.5 | 0.00 | 0.00 | 0.00 | 18 | 1010.9 |
| 20260505191546 | 56 | 44 | 1.7 | 3.5 | 0.00 | 0.00 | 0.00 | 19 | 1010.8 |
| 20260505191446 | 56 | 26 | 1.7 | 2.6 | 0.00 | 0.00 | 0.00 | 19 | 1010.8 |
| 20260505191346 | 56 | 41 | 2.6 | 2.6 | 0.00 | 0.00 | 0.00 | 20 | 1010.8 |
| 20260505191246 | 56 | 18 | 1.7 | 4.3 | 0.00 | 0.00 | 0.00 | 21 | 1010.8 |
| 20260505191212 | 56 | 18 | 1.7 | 4.3 | 0.00 | 0.00 | 0.00 | 21 | 1010.8 |
| 20260505191145 | 56 | 48 | 3.5 | 4.3 | 0.00 | 0.00 | 0.00 | 22 | 1010.9 |
| 20260505191045 | 56 | 52 | 2.6 | 2.6 | 0.00 | 0.00 | 0.00 | 22 | 1010.8 |
| 20260505190945 | 56 | 26 | 0.9 | 1.7 | 0.00 | 0.00 | 0.00 | 23 | 1010.8 |
| 20260505190845 | 56 | 355 | 1.7 | 1.7 | 0.00 | 0.00 | 0.00 | 23 | 1010.8 |
| 20260505190745 | 56 | 19 | 0.9 | 4.3 | 0.00 | 0.00 | 0.00 | 24 | 1010.9 |
| 20260505190711 | 56 | 19 | 0.9 | 4.3 | 0.00 | 0.00 | 0.00 | 24 | 1010.9 |
| 20260505190645 | 56 | 17 | 2.6 | 4.3 | 0.00 | 0.00 | 0.00 | 25 | 1010.8 |
| 20260505190545 | 56 | 42 | 2.6 | 4.3 | 0.00 | 0.00 | 0.00 | 25 | 1010.9 |
| 20260505190445 | 57 | 345 | 2.6 | 4.3 | 0.00 | 0.00 | 0.00 | 25 | 1010.9 |
| 20260505190344 | 57 | 360 | 2.6 | 2.6 | 0.00 | 0.00 | 0.00 | 26 | 1010.9 |
| 20260505190244 | 57 | 18 | 0.9 | 4.3 | 0.00 | 0.00 | 0.00 | 27 | 1010.8 |
| 20260505190212 | 57 | 18 | 0.9 | 4.3 | 0.00 | 0.00 | 0.00 | 27 | 1010.8 |
| 20260505190146 | 57 | 40 | 0.9 | 4.3 | 0.00 | 0.00 | 0.00 | 27 | 1010.9 |
| 20260505190046 | 57 | 51 | 3.5 | 4.3 | 0.00 | 0.00 | 0.00 | 28 | 1010.8 |
| 20260505185946 | 57 | 48 | 2.6 | 2.6 | 0.00 | 0.00 | 0.00 | 29 | 1010.8 |
| 20260505185844 | 57 | 30 | 1.7 | 2.6 | 0.00 | 0.00 | 0.00 | 30 | 1010.8 |
| 20260505185744 | 57 | 32 | 2.6 | 5.2 | 0.00 | 0.00 | 0.00 | 30 | 1010.8 |
| 20260505185712 | 57 | 32 | 2.6 | 5.2 | 0.00 | 0.00 | 0.00 | 30 | 1010.8 |
| 20260505185644 | 57 | 47 | 3.5 | 5.2 | 0.00 | 0.00 | 0.00 | 31 | 1010.8 |
| 20260505185544 | 57 | 21 | 3.5 | 4.3 | 0.00 | 0.00 | 0.00 | 31 | 1010.8 |
| 20260505185445 | 57 | 17 | 2.6 | 3.5 | 0.00 | 0.00 | 0.00 | 32 | 1010.8 |
| 20260505185345 | 57 | 25 | 1.7 | 2.6 | 0.00 | 0.00 | 0.00 | 33 | 1010.8 |
| 20260505185245 | 57 | 30 | 2.6 | 5.2 | 0.00 | 0.00 | 0.00 | 33 | 1010.8 |
| 20260505185211 | 57 | 30 | 2.6 | 5.2 | 0.00 | 0.00 | 0.00 | 33 | 1010.8 |
| 20260505185145 | 57 | 17 | 2.6 | 5.2 | 0.00 | 0.00 | 0.00 | 34 | 1010.8 |
| 20260505185045 | 57 | 347 | 2.6 | 5.2 | 0.00 | 0.00 | 0.00 | 34 | 1010.8 |
| 20260505184944 | 57 | 62 | 2.6 | 3.5 | 0.00 | 0.00 | 0.00 | 34 | 1010.7 |
| 20260505184844 | 57 | 345 | 2.6 | 3.5 | 0.00 | 0.00 | 0.00 | 35 | 1010.8 |
| 20260505184744 | 57 | 15 | 2.6 | 6.1 | 0.00 | 0.00 | 0.00 | 36 | 1010.8 |
| 20260505184712 | 57 | 15 | 2.6 | 6.1 | 0.00 | 0.00 | 0.00 | 36 | 1010.8 |
| 20260505184646 | 57 | 34 | 5.2 | 6.1 | 0.00 | 0.00 | 0.00 | 36 | 1010.8 |
| 20260505184546 | 57 | 34 | 2.6 | 4.3 | 0.00 | 0.00 | 0.00 | 36 | 1010.7 |
| 20260505184445 | 57 | 21 | 2.6 | 4.3 | 0.00 | 0.00 | 0.00 | 36 | 1010.7 |
| 20260505184345 | 57 | 51 | 1.7 | 4.3 | 0.00 | 0.00 | 0.00 | 37 | 1010.7 |
| 20260505184244 | 58 | 46 | 0.9 | 7.0 | 0.00 | 0.00 | 0.00 | 37 | 1010.7 |
| 20260505184212 | 58 | 46 | 0.9 | 7.0 | 0.00 | 0.00 | 0.00 | 37 | 1010.7 |
| 20260505184144 | 58 | 345 | 3.5 | 6.1 | 0.00 | 0.00 | 0.00 | 38 | 1010.6 |
| 20260505184044 | 58 | 38 | 5.2 | 5.2 | 0.00 | 0.00 | 0.00 | 38 | 1010.7 |
| 20260505183945 | 58 | 23 | 1.7 | 2.6 | 0.00 | 0.00 | 0.00 | 38 | 1010.7 |
| 20260505183845 | 58 | 5 | 1.7 | 2.6 | 0.00 | 0.00 | 0.00 | 39 | 1010.7 |
| 20260505183745 | 58 | 17 | 2.6 | 7.0 | 0.00 | 0.00 | 0.00 | 39 | 1010.6 |
| 20260505183711 | 58 | 17 | 2.6 | 7.0 | 0.00 | 0.00 | 0.00 | 39 | 1010.6 |
| 20260505183645 | 58 | 18 | 1.7 | 7.0 | 0.00 | 0.00 | 0.00 | 40 | 1010.6 |
| 20260505183545 | 58 | 13 | 2.6 | 7.0 | 0.00 | 0.00 | 0.00 | 40 | 1010.6 |
| 20260505183445 | 58 | 355 | 1.7 | 7.0 | 0.00 | 0.00 | 0.00 | 41 | 1010.6 |
| 20260505183345 | 58 | 39 | 5.2 | 5.2 | 0.00 | 0.00 | 0.00 | 41 | 1010.6 |
| 20260505183245 | 58 | 43 | 2.6 | 7.8 | 0.00 | 0.00 | 0.00 | 41 | 1010.6 |
| 20260505183213 | 58 | 43 | 2.6 | 7.8 | 0.00 | 0.00 | 0.00 | 41 | 1010.6 |
| 20260505183145 | 58 | 30 | 1.7 | 7.8 | 0.00 | 0.00 | 0.00 | 41 | 1010.5 |
| 20260505183045 | 58 | 9 | 3.5 | 7.8 | 0.00 | 0.00 | 0.00 | 42 | 1010.5 |
| 20260505182944 | 58 | 28 | 4.3 | 7.8 | 0.00 | 0.00 | 0.00 | 42 | 1010.5 |
| 20260505182846 | 58 | 15 | 3.5 | 5.2 | 0.00 | 0.00 | 0.00 | 42 | 1010.6 |
| 20260505182745 | 58 | 360 | 1.7 | 6.1 | 0.00 | 0.00 | 0.00 | 42 | 1010.6 |
| 20260505182711 | 58 | 360 | 1.7 | 6.1 | 0.00 | 0.00 | 0.00 | 42 | 1010.6 |
| 20260505182645 | 58 | 360 | 4.3 | 4.3 | 0.00 | 0.00 | 0.00 | 42 | 1010.6 |
| 20260505182544 | 59 | 26 | 1.7 | 2.6 | 0.00 | 0.00 | 0.00 | 43 | 1010.6 |
| 20260505182444 | 59 | 27 | 1.7 | 2.6 | 0.00 | 0.00 | 0.00 | 43 | 1010.6 |
| 20260505182344 | 59 | 15 | 1.7 | 2.6 | 0.00 | 0.00 | 0.00 | 43 | 1010.5 |
| 20260505182244 | 59 | 360 | 1.7 | 5.2 | 0.00 | 0.00 | 0.00 | 43 | 1010.5 |
| 20260505182212 | 59 | 360 | 1.7 | 5.2 | 0.00 | 0.00 | 0.00 | 43 | 1010.5 |
| 20260505182144 | 59 | 45 | 5.2 | 5.2 | 0.00 | 0.00 | 0.00 | 43 | 1010.5 |
| 20260505182046 | 59 | 31 | 2.6 | 4.3 | 0.00 | 0.00 | 0.00 | 43 | 1010.5 |
| 20260505181945 | 59 | 5 | 2.6 | 2.6 | 0.00 | 0.00 | 0.00 | 43 | 1010.5 |
| 20260505181845 | 59 | 56 | 1.7 | 2.6 | 0.00 | 0.00 | 0.00 | 43 | 1010.6 |
| 20260505181745 | 59 | 31 | 1.7 | 7.0 | 0.00 | 0.00 | 0.00 | 44 | 1010.6 |
| 20260505181711 | 59 | 31 | 1.7 | 7.0 | 0.00 | 0.00 | 0.00 | 44 | 1010.6 |
| 20260505181645 | 59 | 34 | 4.3 | 7.0 | 0.00 | 0.00 | 0.00 | 44 | 1010.5 |
| 20260505181544 | 59 | 67 | 2.6 | 7.0 | 0.00 | 0.00 | 0.00 | 44 | 1010.5 |
| 20260505181445 | 59 | 23 | 2.6 | 5.2 | 0.00 | 0.00 | 0.00 | 44 | 1010.5 |
| 20260505181345 | 59 | 58 | 5.2 | 5.2 | 0.00 | 0.00 | 0.00 | 44 | 1010.5 |
| 20260505181245 | 59 | 5 | 0.9 | 6.1 | 0.00 | 0.00 | 0.00 | 44 | 1010.5 |
| 20260505181211 | 59 | 5 | 0.9 | 6.1 | 0.00 | 0.00 | 0.00 | 44 | 1010.5 |
| 20260505181145 | 59 | 43 | 1.7 | 6.1 | 0.00 | 0.00 | 0.00 | 44 | 1010.5 |
| 20260505181045 | 59 | 53 | 2.6 | 3.5 | 0.00 | 0.00 | 0.00 | 44 | 1010.5 |
| 20260505180945 | 59 | 51 | 2.6 | 3.5 | 0.00 | 0.00 | 0.00 | 44 | 1010.5 |
| 20260505180845 | 59 | 27 | 2.6 | 3.5 | 0.00 | 0.00 | 0.00 | 44 | 1010.5 |
| 20260505180744 | 59 | 53 | 5.2 | 8.7 | 0.00 | 0.00 | 0.00 | 44 | 1010.5 |
| 20260505180712 | 59 | 53 | 5.2 | 8.7 | 0.00 | 0.00 | 0.00 | 44 | 1010.5 |
| 20260505180644 | 59 | 9 | 4.3 | 8.7 | 0.00 | 0.00 | 0.00 | 44 | 1010.5 |
| 20260505180546 | 59 | 20 | 2.6 | 8.7 | 0.00 | 0.00 | 0.00 | 44 | 1010.5 |
| 20260505180446 | 59 | 66 | 3.5 | 8.7 | 0.00 | 0.00 | 0.00 | 44 | 1010.5 |
| 20260505180346 | 59 | 46 | 5.2 | 5.2 | 0.00 | 0.00 | 0.00 | 43 | 1010.5 |
| 20260505180245 | 59 | 59 | 5.2 | 7.8 | 0.00 | 0.00 | 0.00 | 43 | 1010.5 |
| 20260505180213 | 59 | 59 | 5.2 | 7.8 | 0.00 | 0.00 | 0.00 | 43 | 1010.5 |
| 20260505180144 | 59 | 40 | 2.6 | 7.8 | 0.00 | 0.00 | 0.00 | 43 | 1010.5 |
| 20260505180044 | 59 | 64 | 7.8 | 7.8 | 0.00 | 0.00 | 0.00 | 43 | 1010.5 |
| 20260505175944 | 59 | 5 | 1.7 | 6.1 | 0.00 | 0.00 | 0.00 | 43 | 1010.5 |
| 20260505175844 | 59 | 52 | 1.7 | 5.2 | 0.00 | 0.00 | 0.00 | 44 | 1010.5 |
| 20260505175745 | 59 | 25 | 2.6 | 5.2 | 0.00 | 0.00 | 0.00 | 44 | 1010.5 |
| 20260505175711 | 59 | 25 | 2.6 | 5.2 | 0.00 | 0.00 | 0.00 | 44 | 1010.5 |
| 20260505175645 | 59 | 28 | 1.7 | 5.2 | 0.00 | 0.00 | 0.00 | 44 | 1010.5 |
| 20260505175545 | 59 | 80 | 1.7 | 5.2 | 0.00 | 0.00 | 0.00 | 44 | 1010.5 |
| 20260505175445 | 59 | 77 | 2.6 | 5.2 | 0.00 | 0.00 | 0.00 | 44 | 1010.5 |
| 20260505175345 | 59 | 59 | 1.7 | 5.2 | 0.00 | 0.00 | 0.00 | 44 | 1010.5 |
| 20260505175245 | 59 | 62 | 1.7 | 8.7 | 0.00 | 0.00 | 0.00 | 44 | 1010.5 |
| 20260505175213 | 59 | 62 | 1.7 | 8.7 | 0.00 | 0.00 | 0.00 | 44 | 1010.5 |
| 20260505175146 | 59 | 69 | 1.7 | 8.7 | 0.00 | 0.00 | 0.00 | 44 | 1010.5 |
| 20260505175046 | 59 | 86 | 2.6 | 8.7 | 0.00 | 0.00 | 0.00 | 44 | 1010.6 |
| 20260505174946 | 59 | 36 | 5.2 | 8.7 | 0.00 | 0.00 | 0.00 | 44 | 1010.6 |
| 20260505174846 | 59 | 59 | 2.6 | 5.2 | 0.00 | 0.00 | 0.00 | 44 | 1010.5 |
| 20260505174745 | 59 | 30 | 2.6 | 6.1 | 0.00 | 0.00 | 0.00 | 44 | 1010.5 |
| 20260505174713 | 59 | 30 | 2.6 | 6.1 | 0.00 | 0.00 | 0.00 | 44 | 1010.5 |
| 20260505174644 | 59 | 26 | 6.1 | 6.1 | 0.00 | 0.00 | 0.00 | 44 | 1010.6 |
| 20260505174545 | 59 | 33 | 1.7 | 4.3 | 0.00 | 0.00 | 0.00 | 44 | 1010.5 |
| 20260505174445 | 59 | 50 | 1.7 | 4.3 | 0.00 | 0.00 | 0.00 | 44 | 1010.5 |
| 20260505174344 | 59 | 42 | 2.6 | 4.3 | 0.00 | 0.00 | 0.00 | 44 | 1010.5 |
| 20260505174244 | 59 | 32 | 2.6 | 7.8 | 0.00 | 0.00 | 0.00 | 44 | 1010.6 |
| 20260505174212 | 59 | 32 | 2.6 | 7.8 | 0.00 | 0.00 | 0.00 | 44 | 1010.6 |
| 20260505174144 | 59 | 19 | 4.3 | 7.8 | 0.00 | 0.00 | 0.00 | 44 | 1010.6 |
| 20260505174044 | 59 | 25 | 4.3 | 7.8 | 0.00 | 0.00 | 0.00 | 44 | 1010.5 |
| 20260505173944 | 59 | 98 | 5.2 | 7.8 | 0.00 | 0.00 | 0.00 | 44 | 1010.5 |
| 20260505173844 | 59 | 26 | 3.5 | 7.8 | 0.00 | 0.00 | 0.00 | 44 | 1010.6 |
| 20260505173745 | 59 | 72 | 2.6 | 7.8 | 0.00 | 0.00 | 0.00 | 43 | 1010.5 |
| 20260505173713 | 59 | 72 | 2.6 | 7.8 | 0.00 | 0.00 | 0.00 | 43 | 1010.5 |
| 20260505173645 | 59 | 10 | 2.6 | 7.8 | 0.00 | 0.00 | 0.00 | 43 | 1010.5 |
| 20260505173544 | 59 | 36 | 2.6 | 7.8 | 0.00 | 0.00 | 0.00 | 43 | 1010.6 |
| 20260505173444 | 60 | 61 | 2.6 | 6.1 | 0.00 | 0.00 | 0.00 | 43 | 1010.6 |
| 20260505173344 | 60 | 57 | 5.2 | 6.1 | 0.00 | 0.00 | 0.00 | 43 | 1010.6 |
| 20260505173244 | 60 | 325 | 2.6 | 5.2 | 0.00 | 0.00 | 0.00 | 43 | 1010.6 |
| 20260505173212 | 60 | 325 | 2.6 | 5.2 | 0.00 | 0.00 | 0.00 | 43 | 1010.6 |
| 20260505173144 | 60 | 90 | 1.7 | 5.2 | 0.00 | 0.00 | 0.00 | 43 | 1010.6 |
| 20260505173044 | 60 | 9 | 2.6 | 5.2 | 0.00 | 0.00 | 0.00 | 43 | 1010.6 |
| 20260505172944 | 60 | 31 | 2.6 | 5.2 | 0.00 | 0.00 | 0.00 | 43 | 1010.6 |
| 20260505172845 | 60 | 26 | 5.2 | 5.2 | 0.00 | 0.00 | 0.00 | 43 | 1010.6 |
| 20260505172745 | 60 | 36 | 7.0 | 7.0 | 0.00 | 0.00 | 0.00 | 43 | 1010.6 |
| 20260505172711 | 60 | 36 | 7.0 | 7.0 | 0.00 | 0.00 | 0.00 | 43 | 1010.6 |
| 20260505172645 | 60 | 53 | 2.6 | 7.0 | 0.00 | 0.00 | 0.00 | 43 | 1010.6 |
| 20260505172546 | 60 | 49 | 2.6 | 7.0 | 0.00 | 0.00 | 0.00 | 43 | 1010.6 |
| 20260505172446 | 60 | 39 | 3.5 | 7.0 | 0.00 | 0.00 | 0.00 | 43 | 1010.6 |
| 20260505172346 | 60 | 51 | 4.3 | 5.2 | 0.00 | 0.00 | 0.00 | 43 | 1010.6 |
| 20260505172246 | 60 | 46 | 3.5 | 8.7 | 0.00 | 0.00 | 0.00 | 43 | 1010.6 |
| 20260505172212 | 60 | 46 | 3.5 | 8.7 | 0.00 | 0.00 | 0.00 | 43 | 1010.6 |
| 20260505172146 | 60 | 5 | 2.6 | 8.7 | 0.00 | 0.00 | 0.00 | 43 | 1010.5 |
| 20260505172046 | 60 | 47 | 4.3 | 8.7 | 0.00 | 0.00 | 0.00 | 43 | 1010.6 |
| 20260505171945 | 60 | 30 | 3.5 | 8.7 | 0.00 | 0.00 | 0.00 | 43 | 1010.6 |
| 20260505171845 | 60 | 42 | 4.3 | 5.2 | 0.00 | 0.00 | 0.00 | 43 | 1010.6 |
| 20260505171745 | 60 | 39 | 6.1 | 8.7 | 0.00 | 0.00 | 0.00 | 43 | 1010.6 |
| 20260505171712 | 60 | 39 | 6.1 | 8.7 | 0.00 | 0.00 | 0.00 | 43 | 1010.6 |
| 20260505171644 | 60 | 360 | 2.6 | 8.7 | 0.00 | 0.00 | 0.00 | 42 | 1010.5 |
| 20260505171544 | 60 | 68 | 2.6 | 8.7 | 0.00 | 0.00 | 0.00 | 42 | 1010.5 |
| 20260505171444 | 61 | 349 | 2.6 | 8.7 | 0.00 | 0.00 | 0.00 | 42 | 1010.5 |
| 20260505171344 | 60 | 13 | 1.7 | 3.5 | 0.00 | 0.00 | 0.00 | 42 | 1010.5 |
| 20260505171244 | 60 | 23 | 3.5 | 6.1 | 0.00 | 0.00 | 0.00 | 43 | 1010.6 |
| 20260505171212 | 60 | 23 | 3.5 | 6.1 | 0.00 | 0.00 | 0.00 | 43 | 1010.6 |
| 20260505171144 | 60 | 360 | 3.5 | 5.2 | 0.00 | 0.00 | 0.00 | 43 | 1010.5 |
| 20260505171045 | 60 | 360 | 2.6 | 4.3 | 0.00 | 0.00 | 0.00 | 43 | 1010.6 |
| 20260505170945 | 60 | 32 | 2.6 | 4.3 | 0.00 | 0.00 | 0.00 | 43 | 1010.5 |
| 20260505170845 | 60 | 38 | 2.6 | 3.5 | 0.00 | 0.00 | 0.00 | 43 | 1010.5 |
| 20260505170745 | 60 | 58 | 3.5 | 8.7 | 0.00 | 0.00 | 0.00 | 43 | 1010.5 |
| 20260505170713 | 60 | 58 | 3.5 | 8.7 | 0.00 | 0.00 | 0.00 | 43 | 1010.5 |
| 20260505170645 | 60 | 41 | 2.6 | 8.7 | 0.00 | 0.00 | 0.00 | 43 | 1010.6 |
| 20260505170545 | 60 | 30 | 2.6 | 7.8 | 0.00 | 0.00 | 0.00 | 43 | 1010.6 |
| 20260505170444 | 60 | 44 | 2.6 | 7.8 | 0.00 | 0.00 | 0.00 | 43 | 1010.5 |
| 20260505170345 | 60 | 11 | 3.5 | 7.8 | 0.00 | 0.00 | 0.00 | 43 | 1010.6 |
| 20260505170245 | 61 | 51 | 2.6 | 7.8 | 0.00 | 0.00 | 0.00 | 43 | 1010.6 |
| 20260505170211 | 61 | 51 | 2.6 | 7.8 | 0.00 | 0.00 | 0.00 | 43 | 1010.6 |
| 20260505170145 | 61 | 64 | 7.8 | 7.8 | 0.00 | 0.00 | 0.00 | 43 | 1010.6 |
| 20260505170045 | 61 | 9 | 2.6 | 7.0 | 0.00 | 0.00 | 0.00 | 43 | 1010.6 |
| 20260505165945 | 61 | 57 | 2.6 | 7.0 | 0.00 | 0.00 | 0.00 | 43 | 1010.6 |
| 20260505165845 | 61 | 33 | 2.6 | 7.0 | 0.00 | 0.00 | 0.00 | 43 | 1010.6 |
| 20260505165745 | 61 | 25 | 2.6 | 8.7 | 0.00 | 0.00 | 0.00 | 43 | 1010.7 |
| 20260505165713 | 61 | 25 | 2.6 | 8.7 | 0.00 | 0.00 | 0.00 | 43 | 1010.7 |
| 20260505165647 | 61 | 10 | 3.5 | 8.7 | 0.00 | 0.00 | 0.00 | 43 | 1010.7 |
| 20260505165545 | 61 | 26 | 5.2 | 8.7 | 0.00 | 0.00 | 0.00 | 43 | 1010.7 |
| 20260505165445 | 61 | 39 | 3.5 | 5.2 | 0.00 | 0.00 | 0.00 | 43 | 1010.6 |
| 20260505165345 | 61 | 22 | 2.6 | 4.3 | 0.00 | 0.00 | 0.00 | 43 | 1010.7 |
| 20260505165245 | 61 | 9 | 2.6 | 7.8 | 0.00 | 0.00 | 0.00 | 43 | 1010.7 |
| 20260505165212 | 61 | 9 | 2.6 | 7.8 | 0.00 | 0.00 | 0.00 | 43 | 1010.7 |
| 20260505165144 | 61 | 9 | 3.5 | 7.8 | 0.00 | 0.00 | 0.00 | 43 | 1010.6 |
| 20260505165046 | 61 | 32 | 6.1 | 7.8 | 0.00 | 0.00 | 0.00 | 43 | 1010.6 |
| 20260505164946 | 61 | 355 | 2.6 | 7.8 | 0.00 | 0.00 | 0.00 | 43 | 1010.6 |
| 20260505164846 | 61 | 46 | 4.3 | 7.8 | 0.00 | 0.00 | 0.00 | 43 | 1010.6 |
| 20260505164746 | 61 | 5 | 5.2 | 7.0 | 0.00 | 0.00 | 0.00 | 43 | 1010.6 |
| 20260505164712 | 61 | 5 | 5.2 | 7.0 | 0.00 | 0.00 | 0.00 | 43 | 1010.6 |
| 20260505164645 | 61 | 54 | 4.3 | 7.0 | 0.00 | 0.00 | 0.00 | 43 | 1010.6 |
| 20260505164545 | 61 | 64 | 2.6 | 7.0 | 0.00 | 0.00 | 0.00 | 43 | 1010.6 |
| 20260505164445 | 61 | 38 | 2.6 | 6.1 | 0.00 | 0.00 | 0.00 | 43 | 1010.6 |
| 20260505164345 | 61 | 51 | 1.7 | 6.1 | 0.00 | 0.00 | 0.00 | 43 | 1010.6 |
| 20260505164244 | 61 | 23 | 2.6 | 7.0 | 0.00 | 0.00 | 0.00 | 43 | 1010.6 |
| 20260505164212 | 61 | 23 | 2.6 | 7.0 | 0.00 | 0.00 | 0.00 | 43 | 1010.6 |
| 20260505164144 | 61 | 39 | 4.3 | 6.1 | 0.00 | 0.00 | 0.00 | 43 | 1010.6 |
| 20260505164044 | 61 | 46 | 3.5 | 6.1 | 0.00 | 0.00 | 0.00 | 43 | 1010.6 |
| 20260505163945 | 61 | 10 | 2.6 | 3.5 | 0.00 | 0.00 | 0.00 | 43 | 1010.6 |
| 20260505163845 | 61 | 52 | 2.6 | 3.5 | 0.00 | 0.00 | 0.00 | 43 | 1010.6 |
| 20260505163745 | 61 | 30 | 4.3 | 8.7 | 0.00 | 0.00 | 0.00 | 43 | 1010.6 |
| 20260505163713 | 61 | 30 | 4.3 | 8.7 | 0.00 | 0.00 | 0.00 | 43 | 1010.6 |
| 20260505163645 | 61 | 38 | 7.0 | 8.7 | 0.00 | 0.00 | 0.00 | 43 | 1010.6 |
| 20260505163545 | 61 | 18 | 6.1 | 6.1 | 0.00 | 0.00 | 0.00 | 42 | 1010.6 |
| 20260505163445 | 61 | 44 | 2.6 | 5.2 | 0.00 | 0.00 | 0.00 | 42 | 1010.6 |
| 20260505163345 | 61 | 63 | 1.7 | 5.2 | 0.00 | 0.00 | 0.00 | 42 | 1010.6 |
| 20260505163245 | 61 | 350 | 3.5 | 6.1 | 0.00 | 0.00 | 0.00 | 42 | 1010.6 |
| 20260505163212 | 61 | 350 | 3.5 | 6.1 | 0.00 | 0.00 | 0.00 | 42 | 1010.6 |
| 20260505163145 | 62 | 34 | 4.3 | 6.1 | 0.00 | 0.00 | 0.00 | 42 | 1010.6 |
| 20260505163045 | 62 | 55 | 4.3 | 6.1 | 0.00 | 0.00 | 0.00 | 42 | 1010.7 |
| 20260505162945 | 62 | 53 | 4.3 | 6.1 | 0.00 | 0.00 | 0.00 | 42 | 1010.6 |
| 20260505162845 | 62 | 36 | 3.5 | 6.1 | 0.00 | 0.00 | 0.00 | 42 | 1010.7 |
| 20260505162745 | 62 | 26 | 3.5 | 8.7 | 0.00 | 0.00 | 0.00 | 42 | 1010.6 |
| 20260505162711 | 62 | 26 | 3.5 | 8.7 | 0.00 | 0.00 | 0.00 | 42 | 1010.6 |
| 20260505162645 | 62 | 39 | 2.6 | 8.7 | 0.00 | 0.00 | 0.00 | 42 | 1010.6 |
| 20260505162545 | 62 | 36 | 2.6 | 8.7 | 0.00 | 0.00 | 0.00 | 42 | 1010.6 |
| 20260505162444 | 62 | 5 | 2.6 | 8.7 | 0.00 | 0.00 | 0.00 | 42 | 1010.6 |
| 20260505162344 | 62 | 66 | 3.5 | 8.7 | 0.00 | 0.00 | 0.00 | 42 | 1010.6 |
| 20260505162246 | 62 | 42 | 2.6 | 6.1 | 0.00 | 0.00 | 0.00 | 42 | 1010.6 |
| 20260505162212 | 62 | 42 | 2.6 | 6.1 | 0.00 | 0.00 | 0.00 | 42 | 1010.6 |
| 20260505162146 | 62 | 9 | 1.7 | 5.2 | 0.00 | 0.00 | 0.00 | 42 | 1010.6 |
| 20260505162046 | 62 | 44 | 2.6 | 5.2 | 0.00 | 0.00 | 0.00 | 41 | 1010.6 |
| 20260505161945 | 62 | 78 | 2.6 | 5.2 | 0.00 | 0.00 | 0.00 | 41 | 1010.6 |
| 20260505161845 | 62 | 48 | 2.6 | 4.3 | 0.00 | 0.00 | 0.00 | 41 | 1010.6 |
| 20260505161745 | 62 | 51 | 2.6 | 7.8 | 0.00 | 0.00 | 0.00 | 41 | 1010.5 |
| 20260505161712 | 62 | 51 | 2.6 | 7.8 | 0.00 | 0.00 | 0.00 | 41 | 1010.5 |
| 20260505161644 | 62 | 360 | 2.6 | 7.8 | 0.00 | 0.00 | 0.00 | 41 | 1010.6 |
| 20260505161544 | 62 | 355 | 2.6 | 7.8 | 0.00 | 0.00 | 0.00 | 41 | 1010.5 |
| 20260505161444 | 62 | 12 | 3.5 | 7.8 | 0.00 | 0.00 | 0.00 | 41 | 1010.6 |
| 20260505161346 | 62 | 52 | 7.0 | 7.0 | 0.00 | 0.00 | 0.00 | 41 | 1010.6 |
| 20260505161246 | 62 | 350 | 4.3 | 8.7 | 0.00 | 0.00 | 0.00 | 41 | 1010.6 |
| 20260505161212 | 62 | 350 | 4.3 | 8.7 | 0.00 | 0.00 | 0.00 | 41 | 1010.6 |
| 20260505161146 | 62 | 89 | 5.2 | 8.7 | 0.00 | 0.00 | 0.00 | 41 | 1010.6 |
| 20260505161046 | 62 | 360 | 2.6 | 8.7 | 0.00 | 0.00 | 0.00 | 41 | 1010.6 |
| 20260505160946 | 62 | 56 | 8.7 | 8.7 | 0.00 | 0.00 | 0.00 | 41 | 1010.6 |
| 20260505160846 | 62 | 11 | 3.5 | 7.0 | 0.00 | 0.00 | 0.00 | 41 | 1010.6 |
| 20260505160746 | 62 | 12 | 6.1 | 8.7 | 0.00 | 0.00 | 0.00 | 41 | 1010.6 |
| 20260505160712 | 62 | 12 | 6.1 | 8.7 | 0.00 | 0.00 | 0.00 | 41 | 1010.6 |
| 20260505160645 | 62 | 45 | 4.3 | 8.7 | 0.00 | 0.00 | 0.00 | 41 | 1010.7 |
| 20260505160545 | 62 | 23 | 2.6 | 8.7 | 0.00 | 0.00 | 0.00 | 41 | 1010.6 |
| 20260505160445 | 62 | 12 | 2.6 | 8.7 | 0.00 | 0.00 | 0.00 | 41 | 1010.6 |
| 20260505160344 | 62 | 10 | 7.0 | 8.7 | 0.00 | 0.00 | 0.00 | 41 | 1010.7 |
| 20260505160244 | 62 | 336 | 5.2 | 7.8 | 0.00 | 0.00 | 0.00 | 41 | 1010.7 |
| 20260505160212 | 62 | 336 | 5.2 | 7.8 | 0.00 | 0.00 | 0.00 | 41 | 1010.7 |
| 20260505160144 | 62 | 350 | 4.3 | 7.0 | 0.00 | 0.00 | 0.00 | 40 | 1010.7 |
| 20260505153345 | 61 | 36 | 3.5 | 6.1 | 0.00 | 0.00 | 0.00 | 40 | 1010.9 |
| 20260505153245 | 61 | 38 | 6.1 | 8.7 | 0.00 | 0.00 | 0.00 | 40 | 1010.8 |
| 20260505153213 | 61 | 38 | 6.1 | 8.7 | 0.00 | 0.00 | 0.00 | 40 | 1010.8 |
| 20260505153144 | 61 | 46 | 1.7 | 7.8 | 0.00 | 0.00 | 0.00 | 40 | 1010.8 |
| 20260505153044 | 61 | 346 | 1.7 | 7.8 | 0.00 | 0.00 | 0.00 | 40 | 1010.8 |
| 20260505152944 | 61 | 92 | 6.1 | 7.8 | 0.00 | 0.00 | 0.00 | 40 | 1010.9 |
| 20260505152844 | 61 | 32 | 4.3 | 4.3 | 0.00 | 0.00 | 0.00 | 40 | 1010.8 |
| 20260505152745 | 61 | 51 | 3.5 | 8.7 | 0.00 | 0.00 | 0.00 | 40 | 1010.9 |
| 20260505152711 | 61 | 51 | 3.5 | 8.7 | 0.00 | 0.00 | 0.00 | 40 | 1010.9 |
| 20260505152645 | 61 | 355 | 3.5 | 8.7 | 0.00 | 0.00 | 0.00 | 41 | 1010.9 |
| 20260505152545 | 61 | 46 | 2.6 | 8.7 | 0.00 | 0.00 | 0.00 | 41 | 1010.9 |
| 20260505152445 | 61 | 78 | 3.5 | 8.7 | 0.00 | 0.00 | 0.00 | 41 | 1010.9 |
| 20260505152345 | 61 | 11 | 4.3 | 8.7 | 0.00 | 0.00 | 0.00 | 41 | 1010.9 |
| 20260505152244 | 62 | 68 | 2.6 | 8.7 | 0.00 | 0.00 | 0.00 | 41 | 1010.9 |
| 20260505152212 | 62 | 68 | 2.6 | 8.7 | 0.00 | 0.00 | 0.00 | 41 | 1010.9 |
| 20260505152144 | 62 | 54 | 7.0 | 8.7 | 0.00 | 0.00 | 0.00 | 41 | 1010.9 |
| 20260505152044 | 62 | 59 | 8.7 | 8.7 | 0.00 | 0.00 | 0.00 | 41 | 1010.9 |
| 20260505151944 | 62 | 11 | 2.6 | 8.7 | 0.00 | 0.00 | 0.00 | 41 | 1010.8 |
| 20260505151846 | 62 | 37 | 3.5 | 8.7 | 0.00 | 0.00 | 0.00 | 41 | 1010.8 |
| 20260505151746 | 62 | 32 | 3.5 | 7.8 | 0.00 | 0.00 | 0.00 | 41 | 1010.9 |
| 20260505151712 | 62 | 32 | 3.5 | 7.8 | 0.00 | 0.00 | 0.00 | 41 | 1010.9 |
| 20260505151645 | 62 | 50 | 3.5 | 7.8 | 0.00 | 0.00 | 0.00 | 41 | 1010.9 |
| 20260505151545 | 62 | 51 | 2.6 | 7.8 | 0.00 | 0.00 | 0.00 | 41 | 1010.9 |
| 20260505151445 | 62 | 54 | 5.2 | 7.8 | 0.00 | 0.00 | 0.00 | 41 | 1010.9 |
| 20260505151345 | 62 | 42 | 7.0 | 7.0 | 0.00 | 0.00 | 0.00 | 41 | 1010.8 |
| 20260505151245 | 62 | 17 | 6.1 | 9.6 | 0.00 | 0.00 | 0.00 | 41 | 1010.9 |
| 20260505151212 | 62 | 17 | 6.1 | 9.6 | 0.00 | 0.00 | 0.00 | 41 | 1010.9 |
| 20260505151144 | 62 | 42 | 3.5 | 9.6 | 0.00 | 0.00 | 0.00 | 41 | 1010.9 |
| 20260505151045 | 63 | 24 | 2.6 | 9.6 | 0.00 | 0.00 | 0.00 | 40 | 1010.9 |
| 20260505150945 | 63 | 45 | 9.6 | 9.6 | 0.00 | 0.00 | 0.00 | 40 | 1010.9 |
| 20260505150845 | 63 | 42 | 3.5 | 8.7 | 0.00 | 0.00 | 0.00 | 40 | 1010.9 |
| 20260505150745 | 63 | 351 | 5.2 | 7.0 | 0.00 | 0.00 | 0.00 | 39 | 1010.8 |
| 20260505150713 | 63 | 351 | 5.2 | 7.0 | 0.00 | 0.00 | 0.00 | 39 | 1010.8 |
| 20260505150645 | 63 | 360 | 2.6 | 7.0 | 0.00 | 0.00 | 0.00 | 38 | 1010.9 |
| 20260505150545 | 63 | 14 | 2.6 | 7.0 | 0.00 | 0.00 | 0.00 | 38 | 1010.9 |
| 20260505150445 | 63 | 42 | 2.6 | 6.1 | 0.00 | 0.00 | 0.00 | 38 | 1010.9 |
| 20260505150345 | 63 | 89 | 5.2 | 5.2 | 0.00 | 0.00 | 0.00 | 38 | 1010.9 |
| 20260505150244 | 63 | 17 | 2.6 | 7.8 | 0.00 | 0.00 | 0.00 | 38 | 1010.9 |
| 20260505150212 | 63 | 17 | 2.6 | 7.8 | 0.00 | 0.00 | 0.00 | 38 | 1010.9 |
| 20260505150144 | 63 | 59 | 7.8 | 7.8 | 0.00 | 0.00 | 0.00 | 38 | 1010.9 |
| 20260505140646 | 62 | 48 | 3.5 | 7.8 | 0.00 | 0.00 | 0.00 | 25 | 1011.2 |
| 20260505140546 | 62 | 58 | 6.1 | 7.8 | 0.00 | 0.00 | 0.00 | 25 | 1011.2 |
| 20260505140446 | 61 | 90 | 5.2 | 7.8 | 0.00 | 0.00 | 0.00 | 25 | 1011.2 |
| 20260505140345 | 61 | 73 | 5.2 | 6.1 | 0.00 | 0.00 | 0.00 | 25 | 1011.2 |
| 20260505140245 | 61 | 70 | 5.2 | 8.7 | 0.00 | 0.00 | 0.00 | 25 | 1011.2 |
| 20260505140211 | 61 | 70 | 5.2 | 8.7 | 0.00 | 0.00 | 0.00 | 25 | 1011.2 |
| 20260505140145 | 61 | 82 | 3.5 | 8.7 | 0.00 | 0.00 | 0.00 | 25 | 1011.2 |
| 20260505130246 | 60 | 39 | 4.3 | 7.8 | 0.00 | 0.00 | 0.00 | 2 | 1011.4 |
| 20260505130212 | 60 | 39 | 4.3 | 7.8 | 0.00 | 0.00 | 0.00 | 2 | 1011.4 |
| 20260505130145 | 60 | 47 | 0.9 | 6.1 | 0.00 | 0.00 | 0.00 | 3 | 1011.4 |
| 20260505124945 | 60 | 19 | 3.5 | 8.7 | 0.00 | 0.00 | 0.00 | 100 | 1011.3 |
| 20260505124845 | 60 | 18 | 2.6 | 8.7 | 0.00 | 0.00 | 0.00 | 100 | 1011.3 |
| 20260505124745 | 60 | 31 | 1.7 | 8.7 | 0.00 | 0.00 | 0.00 | 100 | 1011.3 |
| 20260505124713 | 60 | 31 | 1.7 | 8.7 | 0.00 | 0.00 | 0.00 | 100 | 1011.3 |
| 20260505124644 | 60 | 32 | 2.6 | 8.7 | 0.00 | 0.00 | 0.00 | 100 | 1011.3 |
| 20260505124544 | 60 | 28 | 2.6 | 8.7 | 0.00 | 0.00 | 0.00 | 100 | 1011.3 |
| 20260505124444 | 60 | 27 | 2.6 | 8.7 | 0.00 | 0.00 | 0.00 | 100 | 1011.4 |
| 20260505124344 | 60 | 17 | 3.5 | 8.7 | 0.00 | 0.00 | 0.00 | 100 | 1011.3 |
| 20260505124244 | 60 | 77 | 2.6 | 5.2 | 0.00 | 0.00 | 0.00 | 100 | 1011.4 |
| 20260505124212 | 60 | 77 | 2.6 | 5.2 | 0.00 | 0.00 | 0.00 | 100 | 1011.4 |